GEFSSE_prec_meanprecacc_060.txt.gz
Total_Precipitation_Accumulation
0.00 0.01 0.04 0.05 0.05 0.06 0.06 0.06 0.06 0.05 0.06 0.07 0.07 0.07 0.09 0.08 0.04 0.02 0.02 0.03 0.06 0.11 0.17 0.21 0.25 0.29 0.28 0.28 0.23 0.08 0.01 0.00 0.00 0.00 0.00 0.00 0.01 0.01 0.01 0.02 0.02 0.03 0.05
0.00 0.01 0.03 0.04 0.05 0.06 0.06 0.06 0.05 0.04 0.05 0.05 0.05 0.07 0.08 0.07 0.04 0.02 0.03 0.06 0.10 0.14 0.18 0.19 0.16 0.14 0.14 0.14 0.10 0.03 0.01 0.00 0.00 0.00 0.00 0.00 0.00 0.01 0.01 0.02 0.02 0.03 0.06
0.00 0.01 0.03 0.03 0.05 0.06 0.06 0.05 0.03 0.03 0.03 0.03 0.04 0.06 0.06 0.05 0.03 0.03 0.06 0.09 0.12 0.14 0.14 0.11 0.08 0.04 0.02 0.01 0.01 0.01 0.00 0.00 0.00 0.00 0.00 0.00 0.00 0.00 0.01 0.01 0.02 0.02 0.03
0.00 0.01 0.01 0.03 0.04 0.06 0.05 0.03 0.02 0.03 0.02 0.02 0.03 0.04 0.04 0.03 0.03 0.04 0.05 0.07 0.07 0.07 0.05 0.04 0.02 0.01 0.00 0.00 0.00 0.00 0.00 0.00 0.00 0.00 0.00 0.00 0.01 0.01 0.01 0.02 0.03 0.02 0.02
0.00 0.00 0.01 0.03 0.05 0.05 0.04 0.02 0.02 0.02 0.02 0.02 0.02 0.02 0.02 0.04 0.06 0.06 0.05 0.03 0.02 0.02 0.01 0.01 0.00 0.00 0.00 0.00 0.00 0.00 0.00 0.00 0.00 0.00 0.00 0.01 0.02 0.04 0.04 0.05 0.06 0.06 0.05
0.00 0.00 0.02 0.03 0.05 0.04 0.03 0.02 0.02 0.02 0.02 0.01 0.01 0.01 0.02 0.04 0.07 0.11 0.05 0.01 0.00 0.00 0.00 0.00 0.00 0.00 0.00 0.00 0.00 0.00 0.00 0.00 0.00 0.00 0.00 0.01 0.04 0.09 0.10 0.10 0.11 0.12 0.13
0.00 0.01 0.02 0.04 0.05 0.04 0.02 0.02 0.02 0.02 0.02 0.01 0.01 0.01 0.02 0.03 0.05 0.08 0.06 0.01 0.00 0.00 0.00 0.00 0.00 0.00 0.00 0.00 0.00 0.00 0.00 0.00 0.00 0.00 0.01 0.02 0.05 0.10 0.11 0.10 0.11 0.13 0.15
0.00 0.01 0.02 0.04 0.05 0.04 0.02 0.02 0.02 0.03 0.03 0.01 0.01 0.01 0.01 0.01 0.02 0.04 0.05 0.01 0.00 0.00 0.00 0.00 0.01 0.01 0.00 0.00 0.00 0.00 0.00 0.00 0.00 0.00 0.01 0.01 0.03 0.08 0.09 0.08 0.08 0.08 0.09
0.00 0.01 0.02 0.03 0.04 0.04 0.02 0.01 0.02 0.03 0.03 0.02 0.01 0.01 0.01 0.01 0.01 0.02 0.03 0.01 0.00 0.00 0.00 0.01 0.01 0.01 0.01 0.01 0.01 0.00 0.00 0.00 0.00 0.00 0.00 0.01 0.05 0.08 0.08 0.08 0.07 0.07 0.06
0.01 0.01 0.01 0.01 0.02 0.03 0.03 0.01 0.01 0.02 0.03 0.02 0.01 0.01 0.00 0.01 0.01 0.01 0.01 0.01 0.00 0.01 0.01 0.01 0.02 0.02 0.01 0.01 0.00 0.00 0.00 0.00 0.00 0.00 0.00 0.02 0.05 0.07 0.07 0.07 0.07 0.07 0.07
0.04 0.04 0.02 0.01 0.01 0.02 0.02 0.01 0.01 0.01 0.02 0.02 0.01 0.00 0.00 0.00 0.01 0.01 0.00 0.00 0.00 0.01 0.01 0.01 0.02 0.01 0.01 0.00 0.00 0.00 0.00 0.00 0.00 0.00 0.00 0.02 0.03 0.05 0.05 0.05 0.06 0.07 0.07
0.04 0.05 0.02 0.01 0.01 0.01 0.02 0.02 0.01 0.01 0.01 0.01 0.01 0.00 0.00 0.00 0.00 0.00 0.00 0.00 0.00 0.01 0.01 0.01 0.01 0.01 0.00 0.00 0.00 0.00 0.00 0.00 0.00 0.00 0.00 0.01 0.02 0.03 0.03 0.04 0.05 0.05 0.06
0.02 0.02 0.01 0.01 0.01 0.01 0.02 0.01 0.01 0.01 0.01 0.01 0.00 0.00 0.00 0.00 0.00 0.00 0.00 0.00 0.00 0.00 0.00 0.00 0.00 0.00 0.00 0.00 0.00 0.00 0.00 0.00 0.00 0.00 0.00 0.00 0.01 0.01 0.02 0.02 0.03 0.04 0.04
0.02 0.01 0.01 0.01 0.01 0.01 0.01 0.01 0.01 0.00 0.00 0.00 0.00 0.00 0.00 0.00 0.00 0.00 0.00 0.00 0.00 0.00 0.00 0.00 0.00 0.00 0.00 0.00 0.00 0.00 0.00 0.00 0.00 0.00 0.00 0.00 0.00 0.01 0.01 0.02 0.02 0.02 0.02
0.02 0.01 0.01 0.01 0.01 0.01 0.01 0.01 0.01 0.01 0.01 0.01 0.01 0.00 0.00 0.00 0.00 0.00 0.00 0.00 0.01 0.00 0.00 0.00 0.00 0.00 0.00 0.00 0.00 0.00 0.00 0.00 0.00 0.00 0.00 0.00 0.00 0.00 0.01 0.01 0.01 0.01 0.02
0.02 0.02 0.02 0.02 0.02 0.01 0.01 0.01 0.02 0.02 0.01 0.01 0.01 0.00 0.00 0.00 0.00 0.00 0.00 0.00 0.00 0.00 0.00 0.00 0.00 0.00 0.00 0.00 0.00 0.00 0.00 0.00 0.00 0.00 0.00 0.00 0.00 0.00 0.00 0.00 0.01 0.02 0.04
0.03 0.03 0.03 0.05 0.05 0.03 0.03 0.03 0.03 0.05 0.04 0.01 0.01 0.01 0.01 0.00 0.00 0.00 0.00 0.00 0.00 0.00 0.00 0.00 0.00 0.00 0.00 0.00 0.00 0.00 0.00 0.00 0.00 0.00 0.00 0.00 0.00 0.00 0.00 0.00 0.01 0.02 0.02
0.03 0.02 0.03 0.05 0.04 0.05 0.06 0.07 0.07 0.07 0.06 0.03 0.02 0.01 0.01 0.01 0.01 0.00 0.00 0.00 0.00 0.00 0.00 0.00 0.00 0.00 0.00 0.00 0.00 0.00 0.00 0.00 0.00 0.00 0.00 0.00 0.00 0.00 0.00 0.00 0.01 0.01 0.01
0.03 0.02 0.02 0.03 0.04 0.07 0.12 0.16 0.15 0.15 0.11 0.08 0.06 0.03 0.02 0.03 0.03 0.02 0.01 0.00 0.01 0.01 0.00 0.00 0.00 0.00 0.00 0.00 0.00 0.00 0.00 0.00 0.00 0.00 0.00 0.00 0.00 0.00 0.00 0.00 0.00 0.00 0.00
0.02 0.02 0.02 0.02 0.04 0.10 0.20 0.26 0.25 0.21 0.14 0.11 0.09 0.07 0.07 0.08 0.09 0.06 0.03 0.03 0.03 0.02 0.01 0.01 0.01 0.01 0.01 0.02 0.02 0.01 0.01 0.01 0.01 0.00 0.00 0.00 0.00 0.01 0.01 0.01 0.00 0.00 0.00
0.01 0.01 0.01 0.01 0.03 0.09 0.18 0.20 0.20 0.18 0.17 0.14 0.13 0.15 0.16 0.15 0.18 0.15 0.09 0.07 0.07 0.05 0.05 0.05 0.05 0.05 0.04 0.06 0.05 0.02 0.01 0.01 0.01 0.01 0.01 0.01 0.01 0.02 0.02 0.02 0.01 0.01 0.00
0.00 0.00 0.00 0.00 0.01 0.04 0.09 0.15 0.21 0.25 0.24 0.21 0.21 0.20 0.19 0.19 0.21 0.19 0.14 0.13 0.13 0.12 0.10 0.09 0.08 0.07 0.07 0.09 0.08 0.06 0.02 0.00 0.00 0.01 0.01 0.01 0.01 0.02 0.02 0.03 0.03 0.02 0.02
0.00 0.00 0.00 0.00 0.00 0.03 0.10 0.19 0.24 0.26 0.22 0.18 0.13 0.12 0.16 0.20 0.21 0.19 0.19 0.20 0.18 0.17 0.13 0.13 0.13 0.11 0.11 0.12 0.12 0.12 0.05 0.01 0.01 0.01 0.02 0.02 0.03 0.02 0.03 0.04 0.04 0.04 0.03
0.00 0.00 0.00 0.00 0.00 0.02 0.06 0.11 0.11 0.10 0.08 0.08 0.11 0.17 0.20 0.22 0.22 0.22 0.21 0.21 0.20 0.19 0.16 0.18 0.21 0.19 0.18 0.14 0.14 0.11 0.09 0.06 0.04 0.02 0.02 0.04 0.05 0.04 0.05 0.05 0.05 0.04 0.04
0.00 0.00 0.00 0.00 0.00 0.00 0.03 0.07 0.10 0.09 0.07 0.09 0.13 0.16 0.16 0.18 0.21 0.23 0.23 0.23 0.21 0.21 0.21 0.24 0.26 0.26 0.24 0.21 0.18 0.18 0.18 0.12 0.07 0.07 0.05 0.04 0.06 0.07 0.07 0.06 0.06 0.05 0.06
0.00 0.00 0.00 0.00 0.00 0.00 0.01 0.03 0.05 0.04 0.04 0.07 0.08 0.10 0.11 0.12 0.15 0.19 0.22 0.22 0.23 0.25 0.25 0.27 0.31 0.33 0.34 0.30 0.24 0.21 0.24 0.22 0.17 0.16 0.14 0.10 0.10 0.11 0.11 0.10 0.10 0.10 0.11

GEFSSE_prec_meanprecacc_066.txt.gz
Total_Precipitation_Accumulation
0.00 0.01 0.05 0.05 0.05 0.07 0.07 0.07 0.07 0.06 0.07 0.08 0.07 0.07 0.09 0.08 0.05 0.03 0.02 0.04 0.06 0.11 0.18 0.23 0.27 0.31 0.30 0.28 0.23 0.08 0.01 0.00 0.00 0.00 0.00 0.01 0.01 0.01 0.02 0.02 0.03 0.04 0.05
0.00 0.01 0.04 0.04 0.06 0.07 0.07 0.07 0.06 0.05 0.05 0.05 0.05 0.07 0.08 0.07 0.04 0.03 0.04 0.07 0.10 0.14 0.19 0.20 0.16 0.14 0.14 0.14 0.10 0.03 0.01 0.00 0.00 0.00 0.00 0.00 0.01 0.01 0.01 0.03 0.03 0.04 0.07
0.00 0.01 0.03 0.04 0.06 0.07 0.07 0.05 0.03 0.03 0.03 0.03 0.04 0.06 0.07 0.05 0.03 0.04 0.07 0.09 0.12 0.14 0.14 0.12 0.08 0.04 0.02 0.01 0.01 0.01 0.00 0.00 0.00 0.00 0.00 0.00 0.00 0.01 0.01 0.02 0.03 0.03 0.04
0.00 0.01 0.02 0.03 0.05 0.06 0.05 0.03 0.03 0.03 0.02 0.02 0.03 0.04 0.05 0.04 0.04 0.05 0.06 0.07 0.07 0.07 0.05 0.04 0.02 0.01 0.00 0.00 0.00 0.00 0.00 0.00 0.00 0.00 0.00 0.00 0.01 0.02 0.03 0.03 0.04 0.03 0.03
0.00 0.01 0.02 0.04 0.05 0.06 0.04 0.03 0.02 0.02 0.02 0.02 0.02 0.02 0.03 0.04 0.06 0.07 0.05 0.03 0.02 0.02 0.01 0.01 0.00 0.00 0.00 0.00 0.00 0.00 0.00 0.00 0.00 0.00 0.00 0.01 0.02 0.05 0.05 0.06 0.07 0.07 0.07
0.00 0.01 0.03 0.04 0.06 0.04 0.03 0.02 0.02 0.02 0.02 0.02 0.01 0.01 0.02 0.04 0.08 0.11 0.05 0.01 0.00 0.00 0.00 0.00 0.00 0.00 0.00 0.00 0.00 0.00 0.00 0.00 0.00 0.00 0.00 0.02 0.05 0.10 0.11 0.10 0.11 0.12 0.14
0.00 0.01 0.03 0.05 0.06 0.04 0.03 0.02 0.02 0.02 0.02 0.02 0.01 0.02 0.03 0.03 0.05 0.08 0.06 0.01 0.00 0.00 0.00 0.00 0.00 0.00 0.00 0.00 0.00 0.00 0.00 0.00 0.00 0.00 0.01 0.02 0.05 0.11 0.11 0.10 0.11 0.13 0.15
0.01 0.02 0.04 0.06 0.06 0.04 0.03 0.02 0.02 0.03 0.03 0.02 0.01 0.02 0.02 0.02 0.02 0.04 0.05 0.01 0.00 0.00 0.00 0.00 0.01 0.01 0.00 0.00 0.00 0.00 0.00 0.00 0.00 0.00 0.01 0.01 0.04 0.08 0.09 0.08 0.08 0.09 0.09
0.01 0.02 0.04 0.05 0.05 0.04 0.03 0.01 0.02 0.03 0.03 0.02 0.01 0.02 0.02 0.02 0.01 0.02 0.03 0.01 0.00 0.00 0.00 0.01 0.01 0.01 0.01 0.01 0.01 0.00 0.00 0.00 0.00 0.00 0.00 0.02 0.05 0.09 0.08 0.08 0.07 0.07 0.07
0.02 0.03 0.03 0.03 0.04 0.04 0.03 0.01 0.01 0.02 0.03 0.02 0.01 0.01 0.01 0.01 0.01 0.01 0.01 0.01 0.00 0.01 0.01 0.01 0.02 0.02 0.01 0.01 0.00 0.00 0.00 0.00 0.00 0.00 0.00 0.02 0.05 0.08 0.07 0.07 0.07 0.07 0.07
0.06 0.06 0.04 0.03 0.02 0.03 0.03 0.02 0.01 0.01 0.02 0.02 0.01 0.00 0.00 0.01 0.01 0.01 0.00 0.00 0.00 0.01 0.01 0.01 0.02 0.01 0.01 0.00 0.00 0.00 0.00 0.00 0.00 0.00 0.00 0.02 0.04 0.05 0.05 0.05 0.06 0.07 0.07
0.06 0.07 0.04 0.03 0.02 0.02 0.02 0.02 0.01 0.01 0.01 0.01 0.01 0.00 0.00 0.00 0.00 0.00 0.00 0.00 0.00 0.01 0.01 0.01 0.01 0.01 0.00 0.00 0.00 0.00 0.00 0.00 0.00 0.00 0.00 0.01 0.02 0.03 0.03 0.04 0.05 0.05 0.06
0.03 0.04 0.03 0.03 0.02 0.02 0.02 0.02 0.01 0.01 0.01 0.01 0.00 0.00 0.00 0.00 0.00 0.00 0.00 0.00 0.00 0.00 0.00 0.00 0.00 0.00 0.00 0.00 0.00 0.00 0.00 0.00 0.00 0.00 0.00 0.00 0.01 0.01 0.02 0.03 0.03 0.04 0.04
0.03 0.02 0.02 0.02 0.02 0.02 0.02 0.01 0.01 0.00 0.00 0.00 0.00 0.00 0.00 0.00 0.00 0.00 0.00 0.00 0.00 0.00 0.00 0.00 0.00 0.00 0.00 0.00 0.00 0.00 0.00 0.00 0.00 0.00 0.00 0.00 0.00 0.01 0.01 0.02 0.02 0.02 0.02
0.04 0.03 0.02 0.02 0.02 0.02 0.02 0.01 0.01 0.01 0.01 0.01 0.01 0.00 0.00 0.00 0.00 0.00 0.00 0.00 0.01 0.00 0.00 0.00 0.00 0.00 0.00 0.00 0.00 0.00 0.00 0.00 0.00 0.00 0.00 0.00 0.00 0.00 0.01 0.01 0.01 0.01 0.02
0.07 0.04 0.03 0.03 0.03 0.02 0.02 0.02 0.02 0.02 0.01 0.01 0.01 0.00 0.00 0.00 0.00 0.00 0.00 0.00 0.00 0.00 0.00 0.00 0.00 0.00 0.00 0.00 0.00 0.00 0.00 0.00 0.00 0.00 0.00 0.00 0.00 0.00 0.00 0.01 0.01 0.03 0.04
0.12 0.08 0.05 0.05 0.06 0.04 0.03 0.04 0.04 0.05 0.04 0.02 0.01 0.01 0.01 0.00 0.00 0.00 0.00 0.00 0.00 0.00 0.00 0.00 0.00 0.00 0.00 0.00 0.00 0.00 0.00 0.00 0.00 0.00 0.00 0.00 0.00 0.00 0.00 0.00 0.02 0.04 0.05
0.12 0.10 0.08 0.07 0.06 0.06 0.07 0.08 0.07 0.08 0.06 0.03 0.02 0.01 0.01 0.01 0.01 0.00 0.00 0.00 0.00 0.00 0.00 0.00 0.00 0.00 0.00 0.00 0.00 0.00 0.00 0.00 0.00 0.00 0.00 0.00 0.00 0.00 0.00 0.00 0.02 0.03 0.04
0.12 0.11 0.09 0.08 0.07 0.09 0.15 0.18 0.16 0.16 0.11 0.08 0.06 0.03 0.02 0.03 0.03 0.02 0.01 0.01 0.01 0.01 0.00 0.00 0.00 0.00 0.00 0.00 0.00 0.00 0.00 0.00 0.00 0.00 0.00 0.00 0.00 0.01 0.01 0.01 0.01 0.02 0.03
0.08 0.09 0.10 0.08 0.09 0.14 0.24 0.28 0.27 0.22 0.15 0.12 0.09 0.08 0.08 0.08 0.09 0.06 0.03 0.03 0.04 0.03 0.02 0.02 0.02 0.02 0.02 0.02 0.02 0.01 0.01 0.01 0.01 0.00 0.00 0.01 0.01 0.02 0.02 0.02 0.02 0.01 0.01
0.04 0.06 0.07 0.07 0.08 0.13 0.21 0.22 0.22 0.19 0.18 0.15 0.13 0.16 0.16 0.16 0.19 0.16 0.09 0.08 0.08 0.06 0.06 0.06 0.06 0.05 0.05 0.06 0.05 0.02 0.01 0.01 0.01 0.01 0.01 0.01 0.01 0.02 0.02 0.03 0.02 0.01 0.01
0.02 0.03 0.04 0.05 0.05 0.08 0.13 0.18 0.23 0.26 0.25 0.22 0.22 0.20 0.19 0.19 0.22 0.20 0.15 0.14 0.15 0.13 0.11 0.10 0.10 0.08 0.08 0.10 0.09 0.07 0.03 0.01 0.00 0.01 0.01 0.01 0.02 0.03 0.03 0.04 0.03 0.03 0.02
0.01 0.01 0.02 0.02 0.03 0.06 0.13 0.21 0.26 0.27 0.23 0.19 0.14 0.13 0.16 0.21 0.22 0.19 0.20 0.21 0.19 0.18 0.14 0.14 0.15 0.13 0.12 0.13 0.13 0.14 0.08 0.02 0.01 0.01 0.02 0.02 0.03 0.02 0.03 0.04 0.04 0.04 0.03
0.00 0.00 0.01 0.01 0.01 0.03 0.07 0.12 0.12 0.10 0.08 0.08 0.11 0.17 0.21 0.22 0.22 0.22 0.21 0.22 0.21 0.19 0.17 0.19 0.22 0.20 0.19 0.16 0.15 0.12 0.11 0.07 0.06 0.04 0.02 0.04 0.05 0.04 0.05 0.05 0.05 0.05 0.04
0.00 0.00 0.00 0.00 0.00 0.01 0.03 0.07 0.11 0.09 0.07 0.09 0.14 0.16 0.16 0.18 0.21 0.23 0.23 0.23 0.21 0.21 0.22 0.24 0.26 0.26 0.25 0.22 0.19 0.20 0.19 0.13 0.08 0.09 0.07 0.05 0.06 0.07 0.07 0.06 0.06 0.05 0.06
0.00 0.00 0.00 0.00 0.00 0.00 0.01 0.03 0.05 0.04 0.04 0.07 0.08 0.10 0.11 0.12 0.15 0.19 0.22 0.22 0.23 0.25 0.25 0.27 0.31 0.33 0.34 0.31 0.26 0.22 0.25 0.23 0.18 0.18 0.16 0.11 0.11 0.11 0.11 0.10 0.10 0.10 0.11

GEFSSE_prec_meanprecacc_072.txt.gz
Total_Precipitation_Accumulation
0.00 0.01 0.05 0.05 0.06 0.07 0.08 0.09 0.08 0.07 0.07 0.08 0.07 0.07 0.10 0.09 0.06 0.04 0.03 0.06 0.10 0.16 0.22 0.25 0.29 0.33 0.31 0.29 0.23 0.08 0.01 0.00 0.00 0.00 0.00 0.01 0.02 0.02 0.02 0.03 0.04 0.04 0.05
0.00 0.01 0.04 0.05 0.06 0.07 0.08 0.08 0.06 0.05 0.05 0.06 0.05 0.08 0.10 0.08 0.05 0.03 0.04 0.08 0.12 0.17 0.21 0.21 0.17 0.15 0.15 0.14 0.10 0.03 0.01 0.00 0.00 0.00 0.00 0.00 0.01 0.01 0.02 0.03 0.04 0.05 0.07
0.00 0.01 0.03 0.04 0.06 0.08 0.07 0.06 0.04 0.03 0.04 0.03 0.04 0.08 0.09 0.06 0.04 0.04 0.07 0.10 0.13 0.15 0.15 0.12 0.09 0.05 0.02 0.01 0.01 0.01 0.00 0.00 0.00 0.00 0.01 0.01 0.01 0.01 0.02 0.03 0.04 0.04 0.05
0.00 0.01 0.02 0.04 0.06 0.07 0.06 0.04 0.03 0.03 0.03 0.03 0.04 0.06 0.06 0.05 0.05 0.05 0.06 0.07 0.07 0.07 0.06 0.04 0.02 0.01 0.00 0.00 0.00 0.00 0.00 0.00 0.00 0.00 0.00 0.01 0.02 0.03 0.04 0.05 0.05 0.05 0.04
0.00 0.01 0.03 0.04 0.06 0.06 0.04 0.03 0.03 0.03 0.02 0.02 0.03 0.03 0.04 0.05 0.07 0.07 0.05 0.03 0.02 0.02 0.01 0.01 0.00 0.00 0.00 0.00 0.00 0.00 0.00 0.00 0.00 0.00 0.01 0.01 0.03 0.05 0.06 0.07 0.08 0.08 0.08
0.00 0.01 0.03 0.05 0.07 0.05 0.03 0.03 0.02 0.02 0.02 0.02 0.02 0.02 0.03 0.05 0.08 0.11 0.06 0.01 0.00 0.00 0.00 0.00 0.00 0.00 0.00 0.00 0.00 0.00 0.00 0.00 0.00 0.00 0.01 0.02 0.05 0.10 0.11 0.10 0.11 0.13 0.14
0.01 0.01 0.04 0.06 0.07 0.05 0.03 0.02 0.02 0.03 0.03 0.02 0.02 0.03 0.03 0.04 0.06 0.08 0.06 0.01 0.00 0.00 0.00 0.00 0.00 0.00 0.00 0.00 0.00 0.00 0.00 0.00 0.00 0.00 0.01 0.02 0.05 0.11 0.12 0.10 0.12 0.14 0.16
0.01 0.02 0.05 0.07 0.07 0.05 0.03 0.02 0.02 0.03 0.03 0.02 0.02 0.03 0.03 0.03 0.02 0.04 0.05 0.01 0.00 0.00 0.00 0.00 0.01 0.01 0.00 0.00 0.00 0.00 0.00 0.00 0.00 0.00 0.01 0.01 0.04 0.08 0.09 0.08 0.08 0.09 0.10
0.01 0.02 0.05 0.07 0.07 0.05 0.03 0.02 0.02 0.03 0.04 0.03 0.02 0.02 0.02 0.02 0.01 0.02 0.03 0.01 0.00 0.00 0.00 0.01 0.01 0.01 0.01 0.01 0.01 0.00 0.00 0.00 0.00 0.00 0.00 0.02 0.05 0.09 0.08 0.08 0.07 0.07 0.07
0.03 0.03 0.04 0.04 0.05 0.05 0.04 0.02 0.01 0.02 0.03 0.03 0.01 0.01 0.01 0.01 0.01 0.01 0.01 0.01 0.00 0.01 0.01 0.01 0.02 0.02 0.01 0.01 0.00 0.00 0.00 0.00 0.00 0.00 0.00 0.02 0.05 0.08 0.07 0.07 0.07 0.07 0.07
0.07 0.07 0.05 0.04 0.04 0.04 0.04 0.02 0.01 0.01 0.02 0.02 0.01 0.01 0.00 0.01 0.01 0.01 0.00 0.00 0.00 0.01 0.01 0.01 0.02 0.01 0.01 0.00 0.00 0.00 0.00 0.00 0.00 0.00 0.00 0.02 0.04 0.05 0.05 0.05 0.06 0.07 0.07
0.08 0.09 0.07 0.05 0.03 0.03 0.03 0.02 0.02 0.01 0.01 0.01 0.01 0.00 0.00 0.00 0.00 0.00 0.00 0.00 0.00 0.01 0.01 0.01 0.01 0.01 0.00 0.00 0.00 0.00 0.00 0.00 0.00 0.00 0.00 0.01 0.02 0.03 0.03 0.04 0.05 0.05 0.06
0.04 0.06 0.06 0.06 0.04 0.03 0.03 0.02 0.02 0.01 0.01 0.01 0.00 0.00 0.00 0.00 0.00 0.00 0.00 0.00 0.00 0.00 0.00 0.00 0.00 0.00 0.00 0.00 0.00 0.00 0.00 0.00 0.00 0.00 0.00 0.00 0.01 0.01 0.02 0.03 0.03 0.04 0.04
0.05 0.04 0.05 0.07 0.06 0.04 0.03 0.02 0.01 0.01 0.01 0.01 0.00 0.00 0.00 0.00 0.00 0.00 0.00 0.00 0.00 0.00 0.00 0.00 0.00 0.00 0.00 0.00 0.00 0.00 0.00 0.00 0.00 0.00 0.00 0.00 0.00 0.01 0.01 0.02 0.02 0.02 0.02
0.07 0.06 0.06 0.07 0.07 0.06 0.04 0.02 0.02 0.01 0.01 0.01 0.01 0.00 0.00 0.00 0.00 0.00 0.00 0.00 0.01 0.00 0.00 0.00 0.00 0.00 0.00 0.00 0.00 0.00 0.00 0.00 0.00 0.00 0.00 0.00 0.00 0.00 0.01 0.01 0.02 0.02 0.02
0.10 0.08 0.08 0.06 0.07 0.06 0.05 0.04 0.03 0.02 0.02 0.01 0.01 0.01 0.00 0.00 0.00 0.00 0.00 0.00 0.00 0.00 0.00 0.00 0.00 0.00 0.00 0.00 0.00 0.00 0.00 0.00 0.00 0.00 0.00 0.00 0.00 0.00 0.00 0.01 0.01 0.03 0.05
0.16 0.14 0.12 0.10 0.09 0.07 0.08 0.07 0.06 0.06 0.04 0.02 0.01 0.01 0.01 0.00 0.00 0.00 0.00 0.00 0.00 0.00 0.00 0.00 0.00 0.00 0.00 0.00 0.00 0.00 0.00 0.00 0.00 0.00 0.00 0.00 0.00 0.00 0.00 0.00 0.02 0.04 0.06
0.15 0.15 0.13 0.11 0.09 0.09 0.11 0.12 0.11 0.10 0.07 0.04 0.03 0.02 0.01 0.01 0.01 0.00 0.00 0.00 0.01 0.00 0.00 0.00 0.00 0.00 0.00 0.00 0.00 0.00 0.01 0.01 0.00 0.00 0.00 0.00 0.00 0.00 0.00 0.00 0.02 0.03 0.05
0.13 0.13 0.13 0.11 0.10 0.14 0.20 0.23 0.21 0.20 0.15 0.10 0.07 0.04 0.03 0.03 0.04 0.02 0.01 0.01 0.02 0.01 0.01 0.01 0.00 0.01 0.01 0.02 0.02 0.02 0.01 0.01 0.01 0.00 0.00 0.00 0.00 0.01 0.01 0.01 0.01 0.02 0.03
0.10 0.11 0.11 0.11 0.13 0.21 0.31 0.34 0.31 0.26 0.19 0.15 0.11 0.09 0.09 0.09 0.10 0.07 0.04 0.04 0.05 0.04 0.03 0.04 0.03 0.04 0.04 0.05 0.04 0.02 0.01 0.01 0.01 0.01 0.01 0.01 0.01 0.02 0.02 0.02 0.02 0.01 0.01
0.05 0.07 0.09 0.10 0.12 0.20 0.28 0.28 0.27 0.24 0.23 0.19 0.16 0.18 0.18 0.17 0.20 0.17 0.10 0.09 0.09 0.08 0.08 0.09 0.09 0.08 0.07 0.08 0.07 0.03 0.02 0.01 0.01 0.01 0.01 0.01 0.01 0.02 0.03 0.03 0.02 0.01 0.01
0.03 0.04 0.06 0.08 0.11 0.15 0.19 0.24 0.29 0.32 0.31 0.27 0.26 0.23 0.21 0.21 0.23 0.20 0.16 0.16 0.16 0.15 0.13 0.12 0.13 0.11 0.10 0.12 0.11 0.09 0.04 0.01 0.00 0.01 0.01 0.01 0.02 0.03 0.03 0.04 0.03 0.03 0.02
0.01 0.02 0.03 0.05 0.08 0.12 0.19 0.27 0.31 0.32 0.27 0.22 0.17 0.15 0.18 0.22 0.23 0.20 0.21 0.22 0.20 0.19 0.15 0.15 0.17 0.15 0.14 0.15 0.15 0.16 0.10 0.03 0.02 0.01 0.02 0.02 0.03 0.02 0.03 0.04 0.04 0.04 0.03
0.01 0.01 0.02 0.02 0.04 0.07 0.12 0.16 0.16 0.14 0.12 0.13 0.16 0.20 0.23 0.24 0.24 0.23 0.22 0.23 0.22 0.20 0.17 0.20 0.23 0.22 0.21 0.17 0.16 0.14 0.12 0.09 0.08 0.05 0.03 0.04 0.05 0.04 0.05 0.05 0.05 0.05 0.04
0.00 0.01 0.01 0.01 0.01 0.02 0.05 0.10 0.14 0.12 0.11 0.13 0.16 0.18 0.18 0.19 0.22 0.24 0.23 0.23 0.22 0.22 0.22 0.24 0.27 0.27 0.26 0.23 0.21 0.21 0.21 0.15 0.11 0.12 0.08 0.06 0.07 0.07 0.07 0.06 0.06 0.05 0.06
0.00 0.01 0.01 0.01 0.01 0.01 0.02 0.05 0.07 0.06 0.06 0.09 0.10 0.12 0.12 0.13 0.15 0.19 0.22 0.23 0.24 0.25 0.25 0.27 0.31 0.34 0.35 0.32 0.27 0.24 0.27 0.25 0.20 0.20 0.19 0.13 0.13 0.12 0.11 0.10 0.10 0.10 0.11

GEFSSE_prec_meanprecacc_078.txt.gz
Total_Precipitation_Accumulation
0.00 0.01 0.05 0.06 0.06 0.08 0.08 0.09 0.08 0.07 0.08 0.09 0.08 0.08 0.10 0.10 0.08 0.06 0.07 0.10 0.14 0.18 0.23 0.26 0.29 0.33 0.31 0.29 0.23 0.09 0.01 0.00 0.00 0.00 0.00 0.01 0.02 0.03 0.03 0.03 0.04 0.04 0.06
0.00 0.01 0.04 0.05 0.07 0.08 0.09 0.09 0.07 0.05 0.06 0.06 0.06 0.09 0.11 0.09 0.07 0.06 0.07 0.11 0.14 0.18 0.22 0.21 0.18 0.15 0.15 0.14 0.10 0.03 0.01 0.00 0.00 0.00 0.00 0.00 0.01 0.02 0.03 0.04 0.05 0.06 0.08
0.00 0.01 0.03 0.05 0.07 0.08 0.08 0.06 0.04 0.04 0.04 0.04 0.05 0.08 0.10 0.07 0.05 0.06 0.09 0.11 0.14 0.15 0.16 0.12 0.09 0.05 0.02 0.01 0.01 0.01 0.00 0.00 0.00 0.00 0.01 0.01 0.01 0.02 0.03 0.04 0.05 0.06 0.06
0.00 0.01 0.02 0.04 0.07 0.08 0.06 0.04 0.03 0.03 0.03 0.04 0.04 0.06 0.07 0.05 0.05 0.06 0.06 0.08 0.08 0.07 0.06 0.04 0.02 0.01 0.00 0.00 0.00 0.00 0.00 0.00 0.00 0.00 0.00 0.01 0.02 0.03 0.05 0.05 0.06 0.05 0.05
0.00 0.01 0.03 0.05 0.07 0.07 0.05 0.03 0.03 0.03 0.03 0.03 0.03 0.04 0.04 0.05 0.07 0.07 0.05 0.03 0.03 0.02 0.01 0.01 0.00 0.00 0.00 0.00 0.00 0.00 0.00 0.00 0.00 0.00 0.01 0.01 0.03 0.06 0.06 0.07 0.08 0.08 0.08
0.00 0.01 0.04 0.05 0.07 0.05 0.04 0.03 0.03 0.03 0.03 0.02 0.02 0.02 0.03 0.05 0.08 0.11 0.06 0.01 0.00 0.00 0.00 0.00 0.00 0.00 0.00 0.00 0.00 0.00 0.00 0.00 0.00 0.00 0.01 0.02 0.05 0.10 0.11 0.10 0.11 0.13 0.15
0.01 0.01 0.05 0.07 0.07 0.05 0.03 0.03 0.03 0.03 0.03 0.03 0.02 0.03 0.04 0.04 0.06 0.08 0.06 0.01 0.00 0.00 0.00 0.00 0.00 0.00 0.00 0.00 0.00 0.00 0.00 0.00 0.00 0.00 0.01 0.02 0.05 0.11 0.12 0.11 0.12 0.14 0.16
0.01 0.03 0.06 0.09 0.08 0.06 0.03 0.03 0.03 0.04 0.04 0.03 0.03 0.03 0.03 0.03 0.02 0.04 0.05 0.01 0.00 0.00 0.00 0.00 0.01 0.01 0.00 0.00 0.00 0.00 0.00 0.00 0.00 0.00 0.01 0.01 0.04 0.08 0.09 0.08 0.08 0.09 0.10
0.02 0.03 0.06 0.08 0.08 0.06 0.04 0.02 0.02 0.04 0.04 0.03 0.02 0.03 0.02 0.02 0.01 0.02 0.03 0.01 0.00 0.00 0.00 0.01 0.01 0.01 0.01 0.01 0.01 0.00 0.00 0.00 0.00 0.00 0.00 0.02 0.05 0.09 0.08 0.08 0.07 0.07 0.07
0.05 0.04 0.05 0.06 0.06 0.06 0.04 0.02 0.02 0.02 0.03 0.03 0.02 0.01 0.01 0.01 0.01 0.01 0.01 0.01 0.00 0.01 0.01 0.01 0.02 0.02 0.01 0.01 0.00 0.00 0.00 0.00 0.00 0.00 0.00 0.02 0.05 0.08 0.07 0.07 0.07 0.07 0.07
0.11 0.08 0.07 0.05 0.05 0.04 0.04 0.02 0.01 0.01 0.02 0.02 0.01 0.01 0.00 0.01 0.01 0.01 0.00 0.00 0.00 0.01 0.01 0.01 0.02 0.01 0.01 0.00 0.00 0.00 0.00 0.00 0.00 0.00 0.00 0.02 0.04 0.05 0.05 0.05 0.06 0.07 0.07
0.13 0.11 0.08 0.06 0.04 0.04 0.03 0.02 0.02 0.01 0.02 0.01 0.01 0.00 0.00 0.00 0.00 0.00 0.00 0.00 0.00 0.01 0.01 0.01 0.01 0.01 0.00 0.00 0.00 0.00 0.00 0.00 0.00 0.00 0.00 0.01 0.02 0.03 0.03 0.04 0.05 0.05 0.06
0.12 0.11 0.08 0.07 0.05 0.04 0.03 0.02 0.02 0.01 0.01 0.01 0.00 0.00 0.00 0.00 0.00 0.00 0.00 0.00 0.00 0.00 0.00 0.00 0.00 0.00 0.00 0.00 0.00 0.00 0.00 0.00 0.00 0.00 0.00 0.00 0.01 0.01 0.02 0.03 0.03 0.04 0.04
0.13 0.11 0.09 0.09 0.07 0.04 0.03 0.02 0.01 0.01 0.01 0.01 0.00 0.00 0.00 0.00 0.00 0.00 0.00 0.00 0.00 0.00 0.00 0.00 0.00 0.00 0.00 0.00 0.00 0.00 0.00 0.00 0.00 0.00 0.00 0.00 0.00 0.01 0.01 0.02 0.02 0.02 0.02
0.16 0.13 0.11 0.10 0.08 0.06 0.04 0.02 0.02 0.01 0.01 0.01 0.01 0.00 0.00 0.00 0.00 0.00 0.00 0.00 0.01 0.00 0.00 0.00 0.00 0.00 0.00 0.00 0.00 0.00 0.00 0.00 0.00 0.00 0.00 0.00 0.00 0.00 0.01 0.01 0.02 0.02 0.03
0.17 0.16 0.14 0.10 0.08 0.08 0.06 0.04 0.03 0.02 0.02 0.01 0.01 0.01 0.00 0.00 0.00 0.00 0.00 0.00 0.00 0.00 0.00 0.00 0.00 0.00 0.00 0.00 0.00 0.00 0.00 0.00 0.00 0.00 0.00 0.00 0.00 0.00 0.00 0.01 0.02 0.04 0.07
0.24 0.22 0.19 0.15 0.12 0.09 0.09 0.09 0.07 0.06 0.04 0.02 0.01 0.01 0.01 0.00 0.00 0.00 0.00 0.00 0.00 0.00 0.00 0.00 0.00 0.00 0.00 0.00 0.00 0.00 0.00 0.00 0.00 0.00 0.00 0.00 0.00 0.00 0.00 0.01 0.03 0.06 0.09
0.27 0.25 0.22 0.17 0.13 0.12 0.13 0.15 0.14 0.11 0.08 0.04 0.03 0.02 0.01 0.01 0.01 0.00 0.00 0.00 0.01 0.00 0.00 0.00 0.00 0.00 0.01 0.00 0.00 0.00 0.01 0.01 0.00 0.00 0.00 0.00 0.00 0.00 0.00 0.01 0.02 0.05 0.07
0.24 0.23 0.22 0.19 0.16 0.19 0.24 0.27 0.25 0.22 0.16 0.11 0.09 0.04 0.03 0.04 0.04 0.02 0.01 0.01 0.02 0.01 0.01 0.01 0.01 0.01 0.02 0.02 0.02 0.02 0.02 0.01 0.01 0.00 0.00 0.00 0.00 0.01 0.01 0.01 0.02 0.03 0.04
0.20 0.23 0.22 0.20 0.21 0.28 0.38 0.41 0.36 0.29 0.21 0.16 0.12 0.11 0.10 0.10 0.10 0.07 0.04 0.04 0.05 0.04 0.03 0.04 0.03 0.04 0.04 0.05 0.05 0.02 0.01 0.01 0.01 0.01 0.01 0.01 0.01 0.02 0.02 0.03 0.02 0.01 0.01
0.14 0.18 0.20 0.19 0.19 0.27 0.34 0.33 0.31 0.28 0.27 0.23 0.20 0.21 0.21 0.19 0.21 0.17 0.10 0.09 0.09 0.08 0.08 0.09 0.09 0.09 0.08 0.09 0.07 0.03 0.02 0.01 0.01 0.01 0.01 0.01 0.01 0.03 0.03 0.04 0.03 0.02 0.01
0.08 0.10 0.14 0.17 0.19 0.21 0.25 0.32 0.38 0.43 0.40 0.35 0.32 0.28 0.24 0.23 0.25 0.22 0.17 0.17 0.17 0.16 0.14 0.14 0.15 0.12 0.11 0.13 0.12 0.11 0.04 0.01 0.00 0.01 0.01 0.01 0.02 0.03 0.03 0.04 0.03 0.03 0.02
0.05 0.07 0.08 0.11 0.15 0.19 0.26 0.36 0.41 0.41 0.36 0.30 0.22 0.21 0.22 0.26 0.26 0.23 0.23 0.24 0.23 0.22 0.18 0.18 0.19 0.17 0.15 0.16 0.17 0.18 0.11 0.04 0.02 0.01 0.02 0.02 0.03 0.03 0.03 0.04 0.04 0.04 0.04
0.04 0.05 0.06 0.07 0.09 0.15 0.22 0.25 0.24 0.20 0.17 0.18 0.22 0.28 0.30 0.29 0.29 0.28 0.27 0.27 0.26 0.24 0.21 0.23 0.26 0.24 0.22 0.18 0.17 0.15 0.14 0.11 0.10 0.06 0.03 0.04 0.05 0.04 0.05 0.05 0.05 0.05 0.04
0.02 0.03 0.04 0.05 0.06 0.08 0.12 0.17 0.22 0.19 0.16 0.18 0.22 0.25 0.25 0.25 0.28 0.29 0.29 0.28 0.26 0.26 0.26 0.27 0.29 0.29 0.27 0.25 0.22 0.22 0.22 0.16 0.12 0.14 0.09 0.06 0.07 0.07 0.07 0.06 0.06 0.05 0.06
0.01 0.02 0.04 0.05 0.06 0.07 0.09 0.12 0.14 0.13 0.13 0.15 0.14 0.15 0.16 0.17 0.20 0.23 0.25 0.26 0.26 0.27 0.27 0.28 0.32 0.35 0.36 0.33 0.28 0.25 0.28 0.26 0.20 0.21 0.20 0.14 0.13 0.12 0.11 0.10 0.10 0.10 0.11

GEFSSE_prec_meanprecacc_084.txt.gz
Total_Precipitation_Accumulation
0.01 0.02 0.08 0.07 0.07 0.08 0.09 0.09 0.09 0.08 0.09 0.10 0.10 0.10 0.13 0.13 0.10 0.07 0.08 0.12 0.15 0.19 0.23 0.26 0.30 0.34 0.32 0.29 0.24 0.09 0.01 0.01 0.01 0.01 0.01 0.02 0.03 0.04 0.04 0.04 0.04 0.05 0.07
0.00 0.02 0.06 0.06 0.08 0.09 0.09 0.09 0.07 0.06 0.07 0.08 0.08 0.11 0.14 0.12 0.09 0.08 0.09 0.12 0.15 0.18 0.22 0.22 0.18 0.15 0.15 0.14 0.10 0.04 0.01 0.00 0.00 0.00 0.00 0.01 0.02 0.03 0.04 0.05 0.05 0.07 0.09
0.00 0.02 0.05 0.06 0.08 0.09 0.08 0.06 0.04 0.04 0.04 0.05 0.07 0.11 0.13 0.10 0.08 0.09 0.12 0.12 0.14 0.16 0.16 0.13 0.09 0.05 0.03 0.02 0.01 0.01 0.00 0.00 0.00 0.00 0.01 0.01 0.02 0.03 0.04 0.05 0.05 0.07 0.07
0.00 0.02 0.03 0.06 0.08 0.08 0.06 0.04 0.04 0.04 0.04 0.04 0.06 0.08 0.09 0.08 0.08 0.08 0.08 0.08 0.08 0.07 0.06 0.04 0.03 0.01 0.00 0.00 0.00 0.00 0.00 0.00 0.00 0.00 0.00 0.01 0.02 0.04 0.05 0.06 0.07 0.06 0.06
0.01 0.01 0.04 0.06 0.08 0.07 0.05 0.04 0.04 0.04 0.04 0.04 0.04 0.05 0.06 0.07 0.08 0.08 0.05 0.04 0.03 0.02 0.01 0.01 0.00 0.00 0.00 0.00 0.00 0.00 0.00 0.00 0.00 0.00 0.01 0.01 0.03 0.06 0.06 0.07 0.08 0.08 0.09
0.01 0.02 0.06 0.07 0.07 0.06 0.04 0.04 0.04 0.04 0.03 0.03 0.03 0.04 0.05 0.06 0.09 0.11 0.06 0.01 0.00 0.00 0.00 0.00 0.00 0.00 0.00 0.00 0.00 0.00 0.00 0.00 0.00 0.00 0.01 0.02 0.05 0.11 0.11 0.10 0.11 0.13 0.15
0.02 0.03 0.07 0.08 0.08 0.06 0.04 0.04 0.04 0.04 0.04 0.03 0.03 0.04 0.04 0.05 0.06 0.09 0.06 0.01 0.00 0.00 0.00 0.00 0.00 0.00 0.00 0.00 0.00 0.00 0.00 0.00 0.00 0.00 0.01 0.02 0.06 0.11 0.12 0.11 0.12 0.14 0.16
0.02 0.05 0.09 0.10 0.09 0.07 0.04 0.04 0.04 0.04 0.05 0.03 0.03 0.04 0.03 0.03 0.03 0.04 0.05 0.01 0.00 0.00 0.00 0.00 0.01 0.01 0.00 0.00 0.00 0.00 0.00 0.00 0.00 0.00 0.01 0.01 0.04 0.08 0.09 0.09 0.09 0.09 0.10
0.04 0.06 0.09 0.10 0.09 0.07 0.05 0.04 0.04 0.04 0.05 0.04 0.03 0.03 0.02 0.02 0.01 0.02 0.03 0.01 0.00 0.00 0.01 0.01 0.01 0.01 0.01 0.01 0.01 0.00 0.00 0.00 0.00 0.00 0.00 0.02 0.05 0.09 0.08 0.08 0.08 0.07 0.07
0.10 0.08 0.08 0.08 0.07 0.07 0.05 0.03 0.02 0.03 0.04 0.03 0.02 0.01 0.01 0.01 0.01 0.01 0.01 0.01 0.00 0.01 0.01 0.01 0.02 0.02 0.01 0.01 0.00 0.00 0.00 0.00 0.00 0.00 0.00 0.02 0.05 0.08 0.07 0.07 0.07 0.07 0.07
0.21 0.14 0.09 0.07 0.06 0.05 0.05 0.03 0.02 0.02 0.03 0.02 0.01 0.01 0.01 0.01 0.01 0.01 0.00 0.00 0.00 0.01 0.01 0.01 0.02 0.01 0.01 0.00 0.00 0.00 0.00 0.00 0.00 0.00 0.00 0.02 0.04 0.05 0.05 0.05 0.06 0.07 0.07
0.23 0.16 0.12 0.09 0.05 0.04 0.04 0.03 0.03 0.02 0.02 0.02 0.01 0.00 0.00 0.00 0.00 0.00 0.00 0.00 0.00 0.01 0.01 0.01 0.01 0.01 0.00 0.00 0.00 0.00 0.00 0.00 0.00 0.00 0.00 0.01 0.02 0.03 0.03 0.04 0.05 0.05 0.06
0.25 0.20 0.14 0.11 0.06 0.04 0.03 0.03 0.02 0.01 0.01 0.01 0.01 0.00 0.00 0.00 0.00 0.00 0.00 0.00 0.00 0.00 0.00 0.00 0.00 0.00 0.00 0.00 0.00 0.00 0.00 0.00 0.00 0.00 0.00 0.00 0.01 0.01 0.02 0.03 0.04 0.04 0.04
0.30 0.24 0.21 0.16 0.09 0.05 0.03 0.02 0.02 0.01 0.01 0.01 0.00 0.00 0.00 0.00 0.00 0.00 0.00 0.00 0.00 0.00 0.00 0.00 0.00 0.00 0.00 0.00 0.00 0.00 0.00 0.00 0.00 0.00 0.00 0.00 0.00 0.01 0.02 0.02 0.03 0.03 0.03
0.32 0.28 0.23 0.19 0.14 0.09 0.05 0.03 0.02 0.02 0.01 0.01 0.01 0.00 0.00 0.00 0.00 0.00 0.00 0.00 0.01 0.00 0.00 0.00 0.00 0.00 0.00 0.00 0.00 0.00 0.00 0.00 0.00 0.00 0.00 0.00 0.00 0.00 0.01 0.02 0.02 0.03 0.05
0.30 0.27 0.26 0.20 0.17 0.13 0.09 0.05 0.03 0.03 0.02 0.01 0.01 0.01 0.00 0.00 0.00 0.00 0.00 0.00 0.00 0.00 0.00 0.00 0.00 0.00 0.00 0.00 0.00 0.00 0.00 0.00 0.00 0.00 0.00 0.00 0.00 0.00 0.00 0.01 0.03 0.06 0.10
0.37 0.34 0.29 0.25 0.23 0.17 0.15 0.13 0.10 0.07 0.05 0.02 0.01 0.01 0.01 0.00 0.00 0.00 0.00 0.00 0.00 0.00 0.00 0.00 0.00 0.00 0.00 0.00 0.00 0.00 0.00 0.00 0.00 0.00 0.00 0.00 0.00 0.00 0.00 0.01 0.03 0.07 0.12
0.48 0.44 0.38 0.28 0.25 0.22 0.20 0.22 0.18 0.14 0.10 0.05 0.03 0.02 0.01 0.01 0.01 0.01 0.00 0.00 0.01 0.00 0.00 0.00 0.00 0.00 0.01 0.00 0.00 0.00 0.01 0.01 0.00 0.00 0.00 0.00 0.00 0.00 0.00 0.01 0.03 0.06 0.10
0.52 0.50 0.45 0.35 0.31 0.34 0.38 0.38 0.33 0.28 0.19 0.14 0.10 0.05 0.03 0.04 0.04 0.02 0.01 0.01 0.02 0.01 0.01 0.01 0.01 0.01 0.02 0.02 0.02 0.02 0.02 0.01 0.01 0.01 0.00 0.00 0.00 0.01 0.01 0.01 0.02 0.03 0.05
0.58 0.59 0.55 0.49 0.45 0.52 0.61 0.60 0.50 0.38 0.27 0.21 0.16 0.13 0.12 0.10 0.10 0.07 0.04 0.04 0.05 0.04 0.03 0.04 0.04 0.04 0.04 0.05 0.05 0.02 0.01 0.01 0.01 0.01 0.01 0.01 0.01 0.02 0.03 0.03 0.03 0.02 0.02
0.57 0.60 0.57 0.53 0.52 0.58 0.61 0.56 0.50 0.43 0.40 0.34 0.29 0.27 0.25 0.22 0.23 0.18 0.11 0.10 0.10 0.09 0.08 0.09 0.09 0.09 0.08 0.09 0.08 0.04 0.02 0.01 0.01 0.01 0.01 0.01 0.01 0.03 0.03 0.04 0.03 0.02 0.01
0.41 0.50 0.56 0.57 0.53 0.51 0.51 0.59 0.65 0.69 0.65 0.57 0.49 0.38 0.33 0.30 0.31 0.27 0.23 0.21 0.19 0.17 0.14 0.14 0.15 0.13 0.11 0.14 0.14 0.12 0.05 0.01 0.00 0.01 0.01 0.01 0.02 0.03 0.03 0.04 0.03 0.03 0.02
0.23 0.35 0.45 0.52 0.57 0.57 0.62 0.74 0.75 0.70 0.59 0.49 0.38 0.34 0.35 0.38 0.39 0.35 0.33 0.32 0.29 0.27 0.21 0.21 0.22 0.20 0.18 0.18 0.19 0.21 0.13 0.04 0.02 0.01 0.02 0.02 0.03 0.03 0.03 0.04 0.04 0.04 0.04
0.13 0.18 0.28 0.39 0.50 0.57 0.71 0.70 0.64 0.53 0.43 0.39 0.45 0.53 0.54 0.51 0.47 0.42 0.38 0.37 0.36 0.32 0.27 0.30 0.32 0.29 0.26 0.21 0.20 0.18 0.17 0.13 0.12 0.06 0.03 0.04 0.05 0.04 0.05 0.05 0.05 0.05 0.05
0.09 0.12 0.14 0.21 0.32 0.41 0.47 0.51 0.59 0.54 0.46 0.47 0.48 0.47 0.45 0.43 0.43 0.41 0.39 0.38 0.36 0.35 0.34 0.35 0.36 0.35 0.32 0.28 0.24 0.24 0.23 0.18 0.13 0.15 0.10 0.06 0.07 0.07 0.07 0.07 0.06 0.06 0.06
0.04 0.08 0.11 0.14 0.18 0.22 0.28 0.36 0.40 0.39 0.40 0.40 0.37 0.36 0.35 0.33 0.34 0.36 0.37 0.36 0.37 0.37 0.37 0.37 0.40 0.41 0.40 0.36 0.30 0.26 0.30 0.27 0.21 0.21 0.21 0.14 0.13 0.12 0.11 0.10 0.10 0.10 0.11

GEFSSE_prec_meanprecacc_090.txt.gz
Total_Precipitation_Accumulation
0.01 0.04 0.10 0.07 0.08 0.08 0.09 0.10 0.09 0.09 0.10 0.12 0.12 0.12 0.15 0.15 0.12 0.09 0.10 0.13 0.16 0.19 0.24 0.27 0.30 0.34 0.32 0.30 0.24 0.09 0.02 0.01 0.01 0.01 0.01 0.02 0.04 0.05 0.04 0.04 0.05 0.06 0.08
0.00 0.03 0.08 0.07 0.08 0.09 0.09 0.10 0.07 0.06 0.08 0.10 0.11 0.14 0.17 0.14 0.11 0.09 0.11 0.13 0.16 0.19 0.23 0.22 0.18 0.16 0.15 0.14 0.10 0.04 0.01 0.00 0.00 0.00 0.00 0.01 0.02 0.04 0.04 0.05 0.06 0.07 0.10
0.00 0.03 0.06 0.07 0.08 0.09 0.08 0.06 0.05 0.05 0.06 0.09 0.11 0.14 0.16 0.12 0.10 0.11 0.13 0.13 0.15 0.16 0.16 0.13 0.09 0.05 0.03 0.02 0.01 0.01 0.00 0.00 0.00 0.00 0.01 0.01 0.02 0.04 0.04 0.05 0.06 0.07 0.08
0.01 0.03 0.05 0.07 0.08 0.08 0.06 0.05 0.04 0.04 0.06 0.08 0.10 0.13 0.12 0.10 0.10 0.10 0.09 0.09 0.08 0.08 0.06 0.04 0.03 0.01 0.00 0.00 0.00 0.00 0.00 0.00 0.00 0.00 0.00 0.01 0.02 0.04 0.05 0.06 0.07 0.07 0.06
0.02 0.03 0.06 0.07 0.08 0.07 0.05 0.04 0.04 0.05 0.06 0.07 0.08 0.09 0.09 0.09 0.10 0.09 0.06 0.04 0.03 0.02 0.01 0.01 0.00 0.00 0.00 0.00 0.00 0.00 0.00 0.00 0.00 0.00 0.01 0.01 0.03 0.06 0.06 0.07 0.08 0.09 0.09
0.03 0.04 0.08 0.07 0.08 0.06 0.05 0.04 0.04 0.05 0.06 0.07 0.07 0.06 0.07 0.09 0.11 0.13 0.06 0.01 0.01 0.00 0.00 0.00 0.00 0.00 0.00 0.00 0.00 0.00 0.00 0.00 0.00 0.00 0.01 0.02 0.05 0.11 0.11 0.11 0.12 0.13 0.15
0.05 0.06 0.10 0.09 0.08 0.06 0.05 0.04 0.04 0.05 0.06 0.07 0.06 0.06 0.07 0.07 0.08 0.09 0.06 0.01 0.00 0.00 0.00 0.00 0.00 0.00 0.00 0.00 0.00 0.00 0.00 0.00 0.00 0.00 0.01 0.02 0.06 0.12 0.12 0.11 0.12 0.14 0.16
0.08 0.10 0.13 0.12 0.10 0.07 0.05 0.05 0.05 0.05 0.06 0.07 0.06 0.07 0.06 0.05 0.03 0.05 0.05 0.02 0.00 0.00 0.00 0.01 0.01 0.01 0.00 0.00 0.00 0.00 0.00 0.00 0.00 0.00 0.01 0.01 0.04 0.08 0.10 0.09 0.09 0.09 0.10
0.17 0.15 0.15 0.13 0.11 0.08 0.06 0.05 0.04 0.05 0.06 0.06 0.06 0.05 0.04 0.03 0.02 0.02 0.03 0.02 0.01 0.00 0.01 0.01 0.01 0.01 0.01 0.01 0.01 0.00 0.00 0.00 0.00 0.00 0.00 0.02 0.05 0.09 0.08 0.08 0.08 0.07 0.07
0.32 0.22 0.15 0.12 0.10 0.08 0.07 0.04 0.03 0.04 0.05 0.05 0.04 0.03 0.02 0.01 0.01 0.01 0.01 0.01 0.00 0.01 0.01 0.01 0.02 0.02 0.01 0.01 0.00 0.00 0.00 0.00 0.00 0.00 0.00 0.02 0.05 0.08 0.07 0.07 0.07 0.07 0.07
0.49 0.35 0.21 0.13 0.09 0.07 0.06 0.04 0.03 0.03 0.03 0.03 0.02 0.01 0.01 0.01 0.01 0.01 0.00 0.00 0.00 0.01 0.01 0.02 0.02 0.01 0.01 0.00 0.00 0.00 0.00 0.00 0.00 0.00 0.00 0.02 0.04 0.05 0.05 0.05 0.06 0.07 0.07
0.54 0.40 0.28 0.16 0.09 0.07 0.06 0.05 0.04 0.03 0.03 0.02 0.01 0.01 0.00 0.01 0.00 0.00 0.00 0.00 0.00 0.01 0.01 0.01 0.01 0.01 0.00 0.00 0.00 0.00 0.00 0.00 0.00 0.00 0.00 0.01 0.02 0.03 0.03 0.04 0.05 0.05 0.06
0.61 0.45 0.31 0.21 0.11 0.06 0.05 0.04 0.04 0.03 0.02 0.01 0.01 0.00 0.00 0.00 0.00 0.00 0.00 0.00 0.00 0.00 0.00 0.00 0.00 0.00 0.00 0.00 0.00 0.00 0.00 0.00 0.00 0.00 0.00 0.00 0.01 0.01 0.02 0.03 0.04 0.04 0.04
0.72 0.57 0.43 0.28 0.15 0.08 0.04 0.03 0.03 0.02 0.01 0.01 0.00 0.00 0.00 0.00 0.00 0.00 0.00 0.00 0.00 0.00 0.00 0.00 0.00 0.00 0.00 0.00 0.00 0.00 0.00 0.00 0.00 0.00 0.00 0.00 0.00 0.01 0.02 0.03 0.03 0.04 0.04
0.70 0.63 0.48 0.34 0.21 0.12 0.06 0.04 0.02 0.02 0.01 0.01 0.01 0.00 0.00 0.00 0.00 0.00 0.00 0.00 0.01 0.00 0.00 0.00 0.00 0.00 0.00 0.00 0.00 0.00 0.00 0.00 0.00 0.00 0.00 0.00 0.00 0.00 0.01 0.02 0.03 0.04 0.07
0.69 0.62 0.52 0.39 0.28 0.17 0.10 0.06 0.04 0.03 0.02 0.01 0.01 0.01 0.00 0.00 0.00 0.00 0.00 0.00 0.00 0.00 0.00 0.00 0.00 0.00 0.00 0.00 0.00 0.00 0.00 0.00 0.00 0.00 0.00 0.00 0.00 0.00 0.00 0.01 0.03 0.07 0.11
0.78 0.71 0.56 0.45 0.37 0.23 0.17 0.15 0.11 0.08 0.05 0.02 0.01 0.01 0.01 0.01 0.00 0.00 0.00 0.00 0.00 0.00 0.00 0.00 0.00 0.00 0.00 0.00 0.00 0.00 0.00 0.00 0.00 0.00 0.00 0.00 0.00 0.00 0.00 0.01 0.03 0.08 0.13
0.87 0.81 0.66 0.50 0.42 0.31 0.25 0.25 0.21 0.15 0.11 0.05 0.03 0.02 0.01 0.01 0.01 0.01 0.00 0.00 0.01 0.00 0.00 0.00 0.00 0.00 0.01 0.00 0.00 0.00 0.01 0.01 0.00 0.00 0.00 0.00 0.00 0.00 0.00 0.01 0.03 0.06 0.10
0.92 0.90 0.76 0.61 0.52 0.50 0.48 0.43 0.37 0.30 0.21 0.15 0.12 0.06 0.04 0.04 0.04 0.02 0.01 0.01 0.02 0.01 0.01 0.01 0.01 0.01 0.02 0.02 0.02 0.02 0.02 0.01 0.01 0.01 0.00 0.00 0.00 0.01 0.01 0.01 0.02 0.03 0.05
1.07 1.06 0.94 0.79 0.71 0.74 0.78 0.71 0.56 0.43 0.30 0.24 0.19 0.16 0.14 0.13 0.12 0.08 0.04 0.05 0.05 0.04 0.04 0.04 0.04 0.04 0.05 0.06 0.05 0.02 0.01 0.01 0.01 0.01 0.01 0.01 0.01 0.02 0.03 0.03 0.03 0.02 0.02
1.17 1.11 1.01 0.91 0.84 0.83 0.81 0.72 0.62 0.51 0.46 0.39 0.34 0.31 0.30 0.27 0.28 0.22 0.14 0.13 0.13 0.12 0.11 0.11 0.11 0.10 0.08 0.10 0.08 0.04 0.02 0.01 0.01 0.01 0.01 0.01 0.01 0.03 0.03 0.04 0.03 0.02 0.02
1.00 1.09 1.06 1.00 0.94 0.86 0.78 0.82 0.83 0.85 0.78 0.68 0.60 0.49 0.43 0.39 0.40 0.35 0.30 0.29 0.28 0.24 0.20 0.19 0.18 0.14 0.12 0.15 0.15 0.13 0.05 0.02 0.01 0.01 0.01 0.01 0.02 0.03 0.03 0.04 0.03 0.03 0.02
0.70 0.91 1.02 1.04 1.03 1.02 1.04 1.16 1.13 1.00 0.82 0.67 0.53 0.49 0.51 0.53 0.53 0.49 0.48 0.45 0.43 0.40 0.32 0.30 0.28 0.24 0.22 0.21 0.21 0.23 0.15 0.06 0.03 0.02 0.02 0.02 0.03 0.03 0.03 0.04 0.04 0.05 0.04
0.45 0.63 0.79 0.95 1.04 1.09 1.23 1.22 1.15 0.97 0.78 0.67 0.70 0.76 0.74 0.71 0.67 0.63 0.59 0.56 0.54 0.48 0.40 0.41 0.42 0.36 0.32 0.26 0.25 0.24 0.22 0.16 0.14 0.08 0.04 0.04 0.05 0.04 0.05 0.05 0.05 0.05 0.05
0.30 0.42 0.51 0.65 0.87 0.96 0.96 0.99 1.07 1.02 0.91 0.89 0.85 0.80 0.73 0.67 0.67 0.65 0.62 0.59 0.56 0.53 0.48 0.47 0.45 0.44 0.43 0.38 0.32 0.29 0.27 0.21 0.16 0.17 0.11 0.07 0.07 0.07 0.07 0.07 0.06 0.06 0.06
0.17 0.29 0.40 0.46 0.59 0.69 0.74 0.79 0.83 0.84 0.87 0.85 0.77 0.71 0.66 0.60 0.57 0.57 0.57 0.56 0.55 0.53 0.50 0.49 0.50 0.51 0.48 0.42 0.34 0.29 0.32 0.29 0.23 0.23 0.22 0.14 0.13 0.13 0.11 0.11 0.10 0.10 0.11

GEFSSE_prec_meanprecacc_096.txt.gz
Total_Precipitation_Accumulation
0.01 0.04 0.10 0.08 0.08 0.08 0.09 0.10 0.10 0.09 0.11 0.14 0.14 0.15 0.18 0.18 0.15 0.11 0.12 0.15 0.17 0.21 0.25 0.28 0.31 0.35 0.33 0.31 0.25 0.10 0.02 0.01 0.01 0.01 0.01 0.03 0.04 0.05 0.05 0.05 0.05 0.06 0.08
0.01 0.03 0.08 0.07 0.08 0.09 0.09 0.10 0.08 0.07 0.10 0.12 0.14 0.17 0.20 0.18 0.13 0.12 0.13 0.15 0.17 0.21 0.24 0.23 0.19 0.17 0.16 0.15 0.11 0.04 0.01 0.00 0.00 0.00 0.00 0.01 0.03 0.04 0.04 0.05 0.06 0.08 0.10
0.01 0.03 0.07 0.07 0.08 0.09 0.08 0.07 0.05 0.06 0.08 0.11 0.13 0.18 0.20 0.16 0.13 0.13 0.16 0.15 0.17 0.17 0.17 0.14 0.10 0.05 0.03 0.02 0.01 0.01 0.00 0.00 0.00 0.00 0.01 0.02 0.02 0.04 0.05 0.05 0.06 0.08 0.08
0.01 0.03 0.05 0.07 0.08 0.08 0.07 0.05 0.04 0.05 0.08 0.11 0.13 0.18 0.17 0.14 0.14 0.12 0.12 0.11 0.10 0.09 0.07 0.05 0.03 0.01 0.00 0.00 0.00 0.00 0.00 0.00 0.00 0.00 0.01 0.01 0.02 0.04 0.06 0.07 0.08 0.07 0.06
0.03 0.04 0.07 0.07 0.08 0.07 0.05 0.04 0.04 0.06 0.09 0.11 0.13 0.14 0.14 0.13 0.13 0.12 0.09 0.06 0.04 0.03 0.01 0.01 0.00 0.00 0.00 0.00 0.00 0.00 0.00 0.00 0.00 0.00 0.01 0.02 0.03 0.06 0.07 0.07 0.09 0.09 0.09
0.05 0.06 0.09 0.07 0.08 0.06 0.05 0.05 0.05 0.06 0.09 0.12 0.13 0.13 0.12 0.14 0.14 0.15 0.09 0.03 0.01 0.01 0.00 0.00 0.00 0.00 0.00 0.00 0.00 0.00 0.00 0.00 0.00 0.00 0.01 0.02 0.05 0.11 0.11 0.11 0.12 0.13 0.15
0.09 0.12 0.13 0.10 0.09 0.07 0.05 0.05 0.05 0.07 0.10 0.14 0.13 0.12 0.11 0.12 0.11 0.11 0.08 0.02 0.01 0.00 0.00 0.00 0.00 0.00 0.00 0.00 0.00 0.00 0.00 0.00 0.00 0.00 0.01 0.02 0.06 0.12 0.12 0.11 0.12 0.15 0.16
0.16 0.20 0.20 0.15 0.11 0.08 0.06 0.05 0.06 0.08 0.12 0.15 0.13 0.12 0.11 0.10 0.06 0.06 0.07 0.02 0.01 0.00 0.01 0.01 0.01 0.01 0.00 0.00 0.00 0.00 0.00 0.00 0.00 0.00 0.01 0.01 0.04 0.08 0.10 0.09 0.09 0.09 0.10
0.31 0.32 0.29 0.19 0.13 0.09 0.07 0.05 0.06 0.09 0.13 0.15 0.13 0.12 0.11 0.08 0.04 0.03 0.04 0.02 0.01 0.01 0.01 0.01 0.01 0.01 0.01 0.01 0.01 0.00 0.00 0.00 0.00 0.00 0.00 0.02 0.05 0.09 0.08 0.08 0.08 0.07 0.07
0.56 0.48 0.37 0.25 0.15 0.11 0.08 0.05 0.05 0.07 0.12 0.14 0.11 0.08 0.06 0.06 0.04 0.02 0.02 0.01 0.01 0.01 0.01 0.02 0.02 0.02 0.01 0.01 0.00 0.00 0.00 0.00 0.00 0.00 0.00 0.02 0.05 0.08 0.07 0.07 0.07 0.07 0.07
0.82 0.69 0.53 0.37 0.24 0.13 0.09 0.06 0.05 0.06 0.09 0.10 0.07 0.04 0.03 0.03 0.03 0.02 0.01 0.01 0.01 0.01 0.02 0.02 0.02 0.02 0.01 0.00 0.00 0.00 0.00 0.00 0.00 0.00 0.00 0.02 0.04 0.05 0.05 0.05 0.06 0.07 0.07
0.89 0.78 0.65 0.50 0.36 0.21 0.12 0.07 0.07 0.06 0.07 0.07 0.05 0.03 0.02 0.02 0.01 0.01 0.01 0.01 0.01 0.01 0.01 0.01 0.01 0.01 0.00 0.00 0.00 0.00 0.00 0.00 0.00 0.00 0.00 0.01 0.02 0.03 0.04 0.04 0.05 0.06 0.06
1.01 0.91 0.76 0.62 0.47 0.31 0.17 0.09 0.07 0.06 0.06 0.06 0.04 0.02 0.01 0.01 0.01 0.01 0.01 0.01 0.01 0.01 0.00 0.00 0.00 0.00 0.00 0.00 0.00 0.00 0.00 0.00 0.00 0.00 0.00 0.00 0.01 0.01 0.02 0.03 0.04 0.05 0.05
1.17 1.03 0.91 0.78 0.60 0.42 0.24 0.12 0.07 0.05 0.05 0.05 0.04 0.02 0.01 0.01 0.01 0.00 0.00 0.00 0.00 0.00 0.00 0.00 0.00 0.00 0.00 0.00 0.00 0.00 0.00 0.00 0.00 0.00 0.00 0.00 0.00 0.01 0.02 0.03 0.03 0.04 0.05
1.13 1.09 0.94 0.83 0.69 0.52 0.35 0.21 0.11 0.07 0.04 0.04 0.04 0.02 0.01 0.01 0.00 0.00 0.00 0.01 0.01 0.00 0.00 0.00 0.00 0.00 0.00 0.00 0.00 0.00 0.00 0.00 0.00 0.00 0.00 0.00 0.00 0.00 0.01 0.02 0.03 0.05 0.07
1.14 1.10 1.03 0.88 0.73 0.60 0.44 0.30 0.17 0.11 0.07 0.04 0.03 0.02 0.01 0.01 0.00 0.00 0.00 0.00 0.00 0.00 0.00 0.00 0.00 0.00 0.00 0.00 0.00 0.00 0.00 0.00 0.00 0.00 0.00 0.00 0.00 0.00 0.00 0.01 0.03 0.07 0.12
1.18 1.18 1.11 0.98 0.86 0.64 0.50 0.41 0.28 0.20 0.13 0.06 0.03 0.02 0.02 0.01 0.01 0.00 0.00 0.00 0.00 0.00 0.00 0.00 0.00 0.00 0.00 0.00 0.00 0.00 0.00 0.00 0.00 0.00 0.00 0.00 0.00 0.00 0.00 0.01 0.03 0.08 0.13
1.24 1.26 1.23 1.07 0.93 0.75 0.58 0.49 0.39 0.26 0.19 0.12 0.07 0.03 0.02 0.02 0.01 0.01 0.00 0.00 0.01 0.00 0.01 0.01 0.01 0.01 0.01 0.01 0.01 0.00 0.01 0.01 0.00 0.00 0.00 0.00 0.00 0.00 0.00 0.01 0.03 0.06 0.11
1.28 1.34 1.33 1.25 1.08 0.98 0.87 0.69 0.55 0.43 0.29 0.23 0.17 0.09 0.05 0.04 0.04 0.02 0.02 0.02 0.02 0.02 0.02 0.02 0.01 0.02 0.03 0.03 0.03 0.02 0.02 0.01 0.01 0.01 0.00 0.00 0.00 0.01 0.01 0.02 0.02 0.03 0.05
1.44 1.53 1.48 1.41 1.30 1.31 1.26 1.04 0.79 0.59 0.41 0.31 0.25 0.19 0.16 0.13 0.12 0.08 0.05 0.06 0.07 0.05 0.05 0.05 0.06 0.06 0.06 0.08 0.06 0.03 0.01 0.01 0.01 0.01 0.01 0.01 0.01 0.02 0.03 0.03 0.03 0.02 0.02
1.50 1.58 1.56 1.47 1.43 1.42 1.31 1.10 0.88 0.69 0.59 0.47 0.40 0.35 0.32 0.28 0.29 0.23 0.15 0.16 0.16 0.13 0.13 0.13 0.13 0.12 0.11 0.12 0.10 0.05 0.02 0.02 0.01 0.01 0.01 0.01 0.01 0.03 0.03 0.04 0.03 0.02 0.02
1.36 1.56 1.63 1.59 1.55 1.40 1.24 1.21 1.12 1.05 0.93 0.79 0.68 0.56 0.46 0.41 0.41 0.37 0.32 0.31 0.31 0.27 0.24 0.24 0.23 0.20 0.16 0.19 0.17 0.15 0.06 0.02 0.01 0.02 0.02 0.02 0.02 0.03 0.03 0.04 0.03 0.03 0.03
1.12 1.41 1.55 1.62 1.61 1.56 1.48 1.55 1.46 1.25 1.02 0.82 0.64 0.58 0.57 0.57 0.55 0.52 0.51 0.50 0.47 0.45 0.39 0.38 0.38 0.34 0.29 0.27 0.27 0.28 0.17 0.07 0.04 0.02 0.02 0.03 0.03 0.03 0.03 0.04 0.04 0.05 0.04
0.82 1.09 1.29 1.50 1.63 1.66 1.66 1.58 1.49 1.27 1.01 0.85 0.84 0.87 0.83 0.77 0.71 0.67 0.64 0.62 0.61 0.55 0.49 0.52 0.54 0.48 0.44 0.36 0.33 0.29 0.25 0.19 0.16 0.09 0.04 0.05 0.05 0.04 0.05 0.05 0.05 0.05 0.05
0.63 0.85 1.01 1.18 1.42 1.47 1.40 1.35 1.44 1.34 1.17 1.08 1.03 0.95 0.84 0.77 0.74 0.71 0.69 0.67 0.65 0.62 0.58 0.58 0.57 0.56 0.55 0.49 0.41 0.36 0.33 0.25 0.18 0.18 0.11 0.07 0.07 0.07 0.07 0.07 0.06 0.06 0.06
0.42 0.62 0.81 0.89 1.05 1.16 1.14 1.15 1.18 1.14 1.12 1.07 0.96 0.88 0.82 0.73 0.68 0.67 0.66 0.66 0.65 0.62 0.60 0.60 0.62 0.64 0.61 0.54 0.44 0.38 0.38 0.33 0.26 0.26 0.24 0.16 0.15 0.13 0.12 0.11 0.10 0.10 0.11

GEFSSE_prec_meanprecacc_102.txt.gz
Total_Precipitation_Accumulation
0.01 0.04 0.10 0.08 0.08 0.08 0.09 0.10 0.10 0.10 0.12 0.14 0.14 0.15 0.19 0.19 0.15 0.11 0.12 0.15 0.18 0.22 0.27 0.29 0.32 0.36 0.34 0.31 0.26 0.11 0.03 0.01 0.01 0.01 0.02 0.03 0.05 0.06 0.05 0.05 0.06 0.07 0.09
0.01 0.03 0.08 0.08 0.08 0.09 0.10 0.10 0.08 0.08 0.10 0.12 0.14 0.18 0.21 0.19 0.14 0.12 0.14 0.15 0.18 0.23 0.25 0.24 0.20 0.17 0.17 0.15 0.11 0.04 0.01 0.00 0.00 0.00 0.00 0.01 0.03 0.05 0.05 0.05 0.06 0.08 0.11
0.02 0.04 0.07 0.07 0.08 0.09 0.08 0.07 0.05 0.06 0.09 0.12 0.15 0.20 0.21 0.17 0.14 0.15 0.17 0.16 0.18 0.19 0.18 0.15 0.11 0.06 0.03 0.02 0.01 0.01 0.01 0.00 0.00 0.00 0.01 0.02 0.02 0.04 0.05 0.06 0.07 0.08 0.08
0.02 0.04 0.05 0.07 0.08 0.09 0.07 0.05 0.05 0.06 0.09 0.12 0.15 0.20 0.19 0.16 0.15 0.14 0.13 0.13 0.13 0.10 0.08 0.06 0.03 0.01 0.00 0.00 0.00 0.00 0.00 0.00 0.00 0.00 0.01 0.01 0.02 0.05 0.07 0.07 0.08 0.07 0.07
0.03 0.04 0.07 0.08 0.09 0.08 0.06 0.05 0.05 0.07 0.10 0.12 0.15 0.18 0.17 0.16 0.16 0.14 0.11 0.09 0.06 0.03 0.02 0.01 0.00 0.00 0.00 0.00 0.00 0.00 0.00 0.00 0.00 0.00 0.01 0.02 0.03 0.07 0.07 0.08 0.09 0.09 0.10
0.06 0.07 0.10 0.09 0.09 0.07 0.05 0.05 0.06 0.08 0.10 0.13 0.16 0.17 0.17 0.17 0.16 0.17 0.11 0.05 0.03 0.01 0.01 0.00 0.00 0.00 0.00 0.00 0.00 0.00 0.00 0.00 0.00 0.00 0.01 0.02 0.05 0.11 0.11 0.11 0.12 0.13 0.16
0.11 0.14 0.15 0.12 0.11 0.08 0.06 0.06 0.06 0.09 0.12 0.16 0.16 0.16 0.17 0.16 0.14 0.13 0.10 0.03 0.01 0.01 0.01 0.00 0.00 0.00 0.00 0.00 0.00 0.00 0.00 0.00 0.00 0.00 0.01 0.02 0.06 0.12 0.12 0.11 0.12 0.15 0.16
0.20 0.23 0.23 0.19 0.16 0.11 0.08 0.07 0.07 0.10 0.14 0.17 0.17 0.16 0.17 0.14 0.10 0.08 0.08 0.03 0.01 0.01 0.01 0.01 0.01 0.01 0.00 0.00 0.00 0.00 0.00 0.00 0.00 0.00 0.01 0.01 0.04 0.09 0.10 0.09 0.09 0.09 0.10
0.39 0.37 0.32 0.23 0.19 0.15 0.11 0.08 0.08 0.12 0.16 0.18 0.17 0.16 0.16 0.14 0.10 0.05 0.05 0.03 0.01 0.01 0.01 0.01 0.01 0.01 0.01 0.01 0.01 0.00 0.00 0.00 0.00 0.00 0.00 0.02 0.05 0.09 0.08 0.08 0.08 0.07 0.07
0.70 0.59 0.47 0.34 0.23 0.19 0.15 0.10 0.08 0.10 0.16 0.18 0.15 0.11 0.09 0.11 0.10 0.06 0.02 0.02 0.01 0.01 0.02 0.02 0.02 0.02 0.01 0.01 0.00 0.00 0.00 0.00 0.00 0.00 0.00 0.02 0.05 0.08 0.07 0.07 0.07 0.07 0.07
1.01 0.85 0.67 0.51 0.39 0.25 0.18 0.13 0.09 0.09 0.13 0.14 0.10 0.07 0.05 0.07 0.07 0.05 0.02 0.01 0.01 0.02 0.02 0.02 0.02 0.02 0.01 0.00 0.00 0.00 0.00 0.00 0.00 0.00 0.00 0.02 0.04 0.05 0.05 0.05 0.06 0.07 0.07
1.13 0.99 0.85 0.68 0.55 0.42 0.28 0.18 0.15 0.11 0.11 0.11 0.08 0.06 0.04 0.04 0.03 0.02 0.02 0.01 0.01 0.01 0.02 0.01 0.01 0.01 0.00 0.00 0.00 0.00 0.00 0.00 0.00 0.00 0.00 0.01 0.02 0.03 0.04 0.04 0.05 0.06 0.06
1.31 1.19 1.05 0.86 0.71 0.57 0.40 0.24 0.17 0.12 0.11 0.10 0.07 0.05 0.03 0.03 0.03 0.02 0.02 0.01 0.01 0.01 0.01 0.00 0.00 0.00 0.00 0.00 0.00 0.00 0.00 0.00 0.00 0.00 0.00 0.00 0.01 0.01 0.02 0.03 0.04 0.05 0.05
1.43 1.30 1.23 1.12 0.91 0.73 0.51 0.33 0.19 0.13 0.11 0.10 0.08 0.06 0.03 0.02 0.02 0.01 0.01 0.01 0.00 0.00 0.00 0.00 0.00 0.00 0.00 0.00 0.00 0.00 0.00 0.00 0.00 0.00 0.00 0.00 0.00 0.01 0.02 0.03 0.03 0.04 0.05
1.35 1.31 1.22 1.17 1.04 0.86 0.66 0.46 0.27 0.18 0.11 0.10 0.09 0.06 0.04 0.02 0.02 0.01 0.01 0.01 0.01 0.00 0.00 0.00 0.00 0.00 0.00 0.00 0.00 0.00 0.00 0.00 0.00 0.00 0.00 0.00 0.00 0.00 0.01 0.02 0.03 0.05 0.07
1.28 1.29 1.26 1.17 1.07 0.98 0.81 0.60 0.38 0.26 0.18 0.14 0.11 0.07 0.05 0.03 0.02 0.01 0.01 0.00 0.00 0.00 0.00 0.00 0.00 0.00 0.00 0.00 0.00 0.00 0.00 0.00 0.00 0.00 0.00 0.00 0.00 0.00 0.00 0.01 0.03 0.07 0.12
1.28 1.36 1.32 1.24 1.16 1.00 0.87 0.74 0.55 0.38 0.26 0.19 0.15 0.10 0.06 0.04 0.02 0.01 0.01 0.00 0.00 0.00 0.00 0.00 0.00 0.00 0.00 0.00 0.00 0.00 0.00 0.00 0.00 0.00 0.00 0.00 0.00 0.00 0.00 0.01 0.03 0.08 0.14
1.35 1.43 1.42 1.29 1.20 1.08 0.92 0.82 0.68 0.49 0.36 0.25 0.21 0.15 0.08 0.05 0.03 0.02 0.01 0.01 0.01 0.01 0.01 0.01 0.01 0.01 0.01 0.01 0.01 0.01 0.01 0.01 0.00 0.00 0.00 0.00 0.00 0.00 0.00 0.01 0.03 0.06 0.11
1.38 1.48 1.51 1.45 1.33 1.27 1.21 1.03 0.88 0.71 0.49 0.37 0.30 0.23 0.15 0.10 0.07 0.04 0.03 0.02 0.03 0.02 0.02 0.02 0.02 0.03 0.03 0.03 0.03 0.02 0.02 0.01 0.01 0.01 0.00 0.00 0.00 0.01 0.01 0.02 0.02 0.03 0.05
1.52 1.63 1.63 1.59 1.54 1.57 1.56 1.41 1.14 0.93 0.67 0.50 0.40 0.31 0.29 0.23 0.18 0.11 0.06 0.07 0.07 0.06 0.05 0.05 0.06 0.06 0.07 0.08 0.06 0.03 0.02 0.01 0.01 0.01 0.01 0.01 0.01 0.02 0.03 0.03 0.03 0.02 0.02
1.57 1.68 1.70 1.64 1.66 1.68 1.61 1.44 1.23 1.00 0.88 0.72 0.60 0.50 0.44 0.41 0.39 0.30 0.18 0.17 0.17 0.14 0.13 0.14 0.13 0.12 0.11 0.13 0.10 0.05 0.03 0.02 0.01 0.01 0.01 0.02 0.02 0.03 0.03 0.04 0.03 0.02 0.02
1.44 1.65 1.76 1.75 1.77 1.66 1.52 1.52 1.46 1.36 1.19 1.06 0.93 0.78 0.61 0.53 0.52 0.46 0.38 0.35 0.33 0.29 0.25 0.24 0.23 0.20 0.17 0.20 0.18 0.16 0.07 0.03 0.01 0.02 0.02 0.02 0.03 0.03 0.03 0.04 0.04 0.03 0.03
1.24 1.53 1.68 1.78 1.83 1.84 1.79 1.91 1.82 1.64 1.37 1.10 0.92 0.85 0.77 0.70 0.65 0.59 0.56 0.55 0.52 0.48 0.42 0.41 0.40 0.36 0.31 0.30 0.29 0.30 0.18 0.07 0.04 0.03 0.03 0.03 0.03 0.03 0.03 0.04 0.05 0.05 0.04
1.02 1.26 1.44 1.68 1.85 1.93 2.01 1.97 1.85 1.62 1.35 1.09 1.03 1.11 1.07 0.93 0.81 0.74 0.69 0.67 0.66 0.59 0.51 0.55 0.58 0.52 0.48 0.40 0.37 0.33 0.27 0.20 0.17 0.10 0.05 0.05 0.05 0.04 0.05 0.06 0.05 0.05 0.05
0.86 1.06 1.19 1.39 1.67 1.76 1.74 1.75 1.81 1.68 1.47 1.32 1.23 1.15 1.09 0.97 0.87 0.80 0.74 0.72 0.70 0.66 0.61 0.60 0.60 0.60 0.59 0.53 0.45 0.41 0.37 0.28 0.20 0.19 0.12 0.07 0.08 0.08 0.08 0.08 0.07 0.06 0.06
0.68 0.87 1.05 1.12 1.30 1.45 1.45 1.52 1.59 1.51 1.45 1.34 1.18 1.08 1.02 0.93 0.83 0.78 0.74 0.72 0.70 0.67 0.63 0.63 0.66 0.67 0.65 0.58 0.49 0.42 0.43 0.37 0.29 0.29 0.26 0.18 0.16 0.14 0.13 0.12 0.11 0.11 0.12

GEFSSE_prec_meanprecacc_108.txt.gz
Total_Precipitation_Accumulation
0.01 0.04 0.11 0.08 0.08 0.09 0.09 0.10 0.10 0.10 0.12 0.14 0.14 0.15 0.20 0.19 0.15 0.11 0.12 0.15 0.18 0.23 0.28 0.30 0.33 0.37 0.34 0.32 0.26 0.11 0.03 0.02 0.02 0.02 0.03 0.04 0.06 0.07 0.06 0.06 0.06 0.07 0.10
0.01 0.03 0.08 0.08 0.09 0.09 0.10 0.10 0.08 0.08 0.10 0.13 0.15 0.18 0.22 0.19 0.14 0.13 0.14 0.16 0.19 0.24 0.27 0.25 0.21 0.18 0.17 0.16 0.11 0.04 0.01 0.00 0.00 0.00 0.00 0.01 0.03 0.05 0.05 0.06 0.07 0.09 0.12
0.02 0.04 0.07 0.08 0.09 0.09 0.09 0.07 0.06 0.06 0.09 0.12 0.15 0.20 0.22 0.18 0.15 0.15 0.17 0.16 0.19 0.21 0.20 0.16 0.12 0.07 0.04 0.02 0.01 0.01 0.01 0.00 0.00 0.00 0.01 0.02 0.03 0.05 0.05 0.06 0.07 0.09 0.09
0.02 0.04 0.06 0.08 0.09 0.09 0.08 0.06 0.05 0.06 0.09 0.12 0.15 0.21 0.20 0.17 0.16 0.15 0.14 0.14 0.14 0.12 0.09 0.06 0.04 0.01 0.01 0.00 0.00 0.00 0.00 0.00 0.00 0.00 0.01 0.01 0.02 0.05 0.07 0.08 0.08 0.07 0.07
0.04 0.05 0.08 0.09 0.10 0.09 0.07 0.06 0.06 0.07 0.10 0.12 0.16 0.19 0.18 0.17 0.16 0.14 0.12 0.10 0.09 0.05 0.03 0.02 0.01 0.00 0.00 0.00 0.00 0.00 0.00 0.00 0.00 0.00 0.01 0.02 0.03 0.07 0.08 0.08 0.09 0.10 0.10
0.07 0.09 0.12 0.11 0.12 0.10 0.08 0.08 0.08 0.10 0.11 0.14 0.17 0.19 0.19 0.19 0.18 0.18 0.14 0.08 0.05 0.02 0.01 0.01 0.00 0.00 0.00 0.00 0.00 0.00 0.00 0.00 0.00 0.00 0.01 0.02 0.06 0.12 0.12 0.11 0.12 0.14 0.16
0.14 0.17 0.18 0.15 0.14 0.11 0.09 0.09 0.10 0.12 0.15 0.18 0.18 0.18 0.20 0.19 0.16 0.15 0.13 0.06 0.03 0.02 0.01 0.01 0.00 0.00 0.00 0.00 0.00 0.00 0.00 0.00 0.00 0.00 0.01 0.02 0.06 0.12 0.12 0.11 0.13 0.15 0.16
0.25 0.27 0.27 0.23 0.21 0.16 0.13 0.11 0.11 0.14 0.18 0.21 0.21 0.20 0.21 0.19 0.15 0.11 0.10 0.05 0.02 0.02 0.01 0.01 0.01 0.01 0.00 0.00 0.00 0.00 0.00 0.00 0.00 0.00 0.01 0.01 0.04 0.09 0.10 0.09 0.09 0.09 0.10
0.48 0.46 0.40 0.31 0.26 0.21 0.17 0.13 0.12 0.15 0.20 0.21 0.22 0.22 0.23 0.21 0.16 0.10 0.07 0.04 0.02 0.02 0.02 0.01 0.01 0.01 0.01 0.01 0.01 0.00 0.00 0.00 0.00 0.00 0.00 0.02 0.05 0.09 0.08 0.08 0.08 0.07 0.07
0.80 0.72 0.62 0.47 0.35 0.28 0.23 0.18 0.16 0.17 0.21 0.22 0.19 0.16 0.15 0.17 0.17 0.12 0.06 0.04 0.02 0.02 0.02 0.02 0.02 0.02 0.02 0.01 0.00 0.00 0.00 0.00 0.00 0.00 0.00 0.02 0.05 0.08 0.07 0.07 0.07 0.07 0.07
1.11 0.98 0.83 0.67 0.55 0.39 0.30 0.24 0.20 0.19 0.22 0.22 0.16 0.12 0.10 0.12 0.13 0.10 0.05 0.03 0.03 0.02 0.02 0.02 0.02 0.02 0.01 0.00 0.00 0.00 0.00 0.00 0.00 0.00 0.00 0.02 0.04 0.05 0.06 0.05 0.06 0.07 0.08
1.23 1.12 1.00 0.83 0.69 0.56 0.43 0.31 0.26 0.22 0.20 0.18 0.13 0.10 0.08 0.08 0.07 0.05 0.05 0.03 0.03 0.03 0.02 0.01 0.01 0.01 0.00 0.00 0.00 0.00 0.00 0.00 0.00 0.00 0.00 0.01 0.02 0.03 0.04 0.04 0.05 0.06 0.06
1.43 1.34 1.19 1.03 0.88 0.74 0.56 0.37 0.29 0.24 0.21 0.19 0.14 0.11 0.08 0.07 0.07 0.05 0.04 0.04 0.04 0.02 0.01 0.00 0.00 0.00 0.00 0.00 0.00 0.00 0.00 0.00 0.00 0.00 0.00 0.00 0.01 0.02 0.02 0.03 0.04 0.05 0.05
1.53 1.44 1.37 1.27 1.10 0.93 0.70 0.49 0.34 0.28 0.23 0.20 0.16 0.13 0.10 0.07 0.05 0.04 0.03 0.02 0.02 0.02 0.01 0.00 0.00 0.00 0.00 0.00 0.00 0.00 0.00 0.00 0.00 0.00 0.00 0.00 0.00 0.01 0.02 0.03 0.03 0.04 0.05
1.41 1.43 1.35 1.29 1.18 1.04 0.84 0.62 0.42 0.33 0.26 0.23 0.21 0.17 0.12 0.08 0.06 0.04 0.03 0.02 0.02 0.01 0.00 0.00 0.00 0.00 0.00 0.00 0.00 0.00 0.00 0.00 0.00 0.00 0.00 0.00 0.00 0.00 0.01 0.02 0.03 0.05 0.08
1.31 1.37 1.37 1.30 1.19 1.12 0.97 0.74 0.51 0.39 0.33 0.30 0.25 0.19 0.14 0.11 0.08 0.07 0.04 0.03 0.01 0.01 0.00 0.00 0.00 0.00 0.00 0.00 0.00 0.00 0.00 0.00 0.00 0.00 0.00 0.00 0.00 0.00 0.00 0.01 0.03 0.07 0.12
1.30 1.39 1.37 1.34 1.28 1.12 1.02 0.89 0.70 0.53 0.41 0.34 0.31 0.24 0.19 0.13 0.09 0.07 0.05 0.03 0.02 0.01 0.00 0.00 0.00 0.00 0.00 0.00 0.00 0.00 0.00 0.00 0.00 0.00 0.00 0.00 0.00 0.00 0.00 0.01 0.04 0.08 0.14
1.36 1.44 1.44 1.34 1.27 1.16 1.04 0.97 0.84 0.67 0.52 0.40 0.37 0.31 0.24 0.19 0.13 0.10 0.06 0.05 0.04 0.02 0.01 0.01 0.01 0.01 0.01 0.01 0.01 0.01 0.01 0.01 0.00 0.00 0.00 0.00 0.00 0.00 0.00 0.01 0.03 0.06 0.11
1.40 1.49 1.53 1.49 1.38 1.32 1.28 1.14 1.03 0.89 0.67 0.55 0.47 0.39 0.30 0.24 0.20 0.15 0.10 0.07 0.06 0.05 0.03 0.02 0.02 0.03 0.03 0.03 0.03 0.02 0.02 0.01 0.01 0.01 0.00 0.00 0.00 0.01 0.01 0.02 0.02 0.03 0.05
1.55 1.65 1.65 1.62 1.58 1.64 1.64 1.49 1.25 1.07 0.84 0.68 0.59 0.46 0.42 0.35 0.29 0.22 0.15 0.13 0.11 0.08 0.07 0.06 0.06 0.06 0.07 0.08 0.06 0.03 0.02 0.01 0.01 0.01 0.01 0.01 0.01 0.02 0.03 0.03 0.03 0.02 0.02
1.63 1.72 1.74 1.68 1.69 1.72 1.69 1.52 1.31 1.10 1.01 0.87 0.75 0.65 0.58 0.54 0.51 0.39 0.25 0.23 0.21 0.16 0.15 0.15 0.14 0.13 0.12 0.13 0.10 0.05 0.03 0.02 0.01 0.01 0.01 0.02 0.02 0.03 0.04 0.04 0.03 0.02 0.02
1.52 1.72 1.81 1.81 1.82 1.70 1.56 1.59 1.53 1.45 1.29 1.17 1.08 0.94 0.76 0.67 0.65 0.57 0.47 0.41 0.37 0.32 0.27 0.26 0.25 0.21 0.18 0.20 0.19 0.16 0.07 0.03 0.01 0.02 0.03 0.02 0.03 0.03 0.03 0.04 0.04 0.03 0.03
1.29 1.59 1.75 1.86 1.90 1.89 1.84 1.96 1.89 1.75 1.49 1.22 1.04 0.99 0.94 0.87 0.82 0.75 0.70 0.65 0.60 0.53 0.46 0.44 0.43 0.37 0.32 0.30 0.30 0.30 0.18 0.08 0.04 0.03 0.03 0.03 0.03 0.03 0.03 0.04 0.05 0.05 0.04
1.08 1.31 1.50 1.75 1.92 2.01 2.09 2.04 1.92 1.70 1.44 1.19 1.14 1.22 1.21 1.10 0.99 0.94 0.87 0.82 0.78 0.69 0.58 0.60 0.61 0.55 0.50 0.42 0.39 0.35 0.29 0.21 0.17 0.10 0.05 0.05 0.05 0.04 0.05 0.06 0.06 0.06 0.05
0.96 1.15 1.27 1.48 1.76 1.85 1.83 1.83 1.90 1.76 1.55 1.41 1.34 1.29 1.25 1.15 1.05 0.97 0.93 0.91 0.84 0.78 0.71 0.67 0.65 0.64 0.62 0.56 0.48 0.43 0.40 0.30 0.21 0.20 0.13 0.08 0.08 0.08 0.08 0.08 0.07 0.07 0.07
0.79 0.99 1.16 1.24 1.43 1.55 1.54 1.61 1.69 1.61 1.55 1.45 1.30 1.21 1.18 1.13 1.03 0.96 0.91 0.89 0.87 0.81 0.75 0.73 0.74 0.73 0.70 0.63 0.53 0.46 0.46 0.40 0.31 0.31 0.27 0.18 0.17 0.15 0.13 0.12 0.12 0.12 0.13

GEFSSE_prec_meanprecacc_114.txt.gz
Total_Precipitation_Accumulation
0.02 0.04 0.12 0.10 0.09 0.10 0.10 0.12 0.12 0.12 0.14 0.16 0.15 0.16 0.20 0.19 0.16 0.11 0.13 0.16 0.19 0.24 0.30 0.31 0.34 0.37 0.35 0.33 0.27 0.12 0.04 0.03 0.03 0.03 0.04 0.05 0.07 0.07 0.06 0.06 0.06 0.08 0.12
0.01 0.04 0.10 0.10 0.10 0.10 0.11 0.12 0.10 0.09 0.12 0.15 0.16 0.19 0.23 0.20 0.15 0.13 0.15 0.17 0.20 0.26 0.29 0.27 0.22 0.19 0.18 0.17 0.12 0.05 0.02 0.01 0.00 0.00 0.01 0.01 0.03 0.05 0.05 0.06 0.07 0.10 0.13
0.02 0.04 0.10 0.10 0.11 0.12 0.11 0.09 0.07 0.08 0.10 0.13 0.17 0.22 0.23 0.19 0.16 0.16 0.18 0.17 0.21 0.23 0.23 0.17 0.12 0.07 0.04 0.03 0.02 0.01 0.01 0.00 0.00 0.00 0.01 0.02 0.03 0.05 0.05 0.06 0.08 0.09 0.09
0.02 0.05 0.09 0.11 0.12 0.12 0.10 0.08 0.07 0.08 0.11 0.14 0.17 0.22 0.21 0.18 0.17 0.16 0.15 0.15 0.16 0.14 0.11 0.08 0.05 0.02 0.01 0.01 0.01 0.00 0.00 0.00 0.00 0.00 0.01 0.01 0.02 0.05 0.07 0.08 0.08 0.08 0.07
0.04 0.07 0.12 0.16 0.17 0.16 0.12 0.10 0.09 0.10 0.13 0.15 0.18 0.20 0.20 0.18 0.17 0.16 0.13 0.11 0.10 0.07 0.04 0.03 0.01 0.01 0.00 0.00 0.00 0.00 0.00 0.00 0.00 0.00 0.01 0.02 0.04 0.08 0.08 0.09 0.09 0.10 0.10
0.08 0.10 0.15 0.17 0.20 0.20 0.18 0.15 0.13 0.14 0.16 0.18 0.19 0.21 0.22 0.20 0.19 0.19 0.15 0.09 0.06 0.04 0.02 0.01 0.01 0.00 0.00 0.00 0.00 0.00 0.00 0.00 0.00 0.00 0.01 0.02 0.06 0.13 0.12 0.11 0.13 0.15 0.17
0.15 0.18 0.21 0.21 0.24 0.23 0.22 0.20 0.18 0.17 0.21 0.24 0.23 0.23 0.25 0.22 0.18 0.17 0.15 0.07 0.04 0.04 0.02 0.01 0.01 0.01 0.00 0.00 0.00 0.00 0.00 0.00 0.00 0.00 0.01 0.03 0.06 0.12 0.13 0.12 0.13 0.15 0.17
0.26 0.29 0.30 0.30 0.31 0.27 0.25 0.24 0.22 0.23 0.25 0.28 0.28 0.28 0.28 0.26 0.20 0.15 0.13 0.06 0.04 0.03 0.02 0.01 0.01 0.01 0.01 0.00 0.00 0.00 0.00 0.00 0.00 0.00 0.01 0.02 0.04 0.09 0.10 0.09 0.09 0.09 0.10
0.51 0.50 0.47 0.41 0.37 0.33 0.30 0.28 0.26 0.27 0.29 0.29 0.29 0.29 0.30 0.27 0.21 0.15 0.10 0.07 0.04 0.04 0.02 0.02 0.02 0.01 0.01 0.01 0.01 0.00 0.00 0.00 0.00 0.00 0.00 0.02 0.05 0.09 0.08 0.08 0.08 0.07 0.07
0.81 0.75 0.67 0.58 0.51 0.43 0.37 0.32 0.31 0.32 0.34 0.34 0.29 0.24 0.22 0.23 0.22 0.18 0.10 0.09 0.06 0.05 0.04 0.02 0.02 0.02 0.02 0.01 0.01 0.00 0.00 0.00 0.00 0.00 0.01 0.02 0.05 0.08 0.07 0.07 0.07 0.07 0.07
1.12 0.99 0.85 0.73 0.65 0.54 0.45 0.37 0.34 0.36 0.38 0.35 0.28 0.21 0.19 0.21 0.20 0.17 0.10 0.07 0.07 0.05 0.04 0.03 0.02 0.02 0.01 0.00 0.00 0.00 0.00 0.00 0.00 0.00 0.01 0.02 0.04 0.06 0.06 0.05 0.06 0.07 0.08
1.24 1.13 1.01 0.86 0.76 0.66 0.56 0.44 0.40 0.36 0.34 0.31 0.22 0.19 0.17 0.16 0.15 0.12 0.10 0.07 0.07 0.05 0.04 0.03 0.02 0.01 0.00 0.00 0.00 0.00 0.00 0.00 0.00 0.00 0.00 0.01 0.02 0.03 0.04 0.04 0.06 0.06 0.06
1.44 1.35 1.21 1.05 0.93 0.82 0.68 0.51 0.42 0.38 0.35 0.31 0.23 0.19 0.16 0.17 0.16 0.13 0.12 0.10 0.09 0.06 0.03 0.02 0.01 0.00 0.00 0.00 0.00 0.00 0.00 0.00 0.00 0.00 0.00 0.00 0.01 0.02 0.03 0.03 0.04 0.05 0.05
1.54 1.45 1.39 1.29 1.12 0.98 0.79 0.60 0.46 0.40 0.36 0.33 0.26 0.22 0.20 0.16 0.13 0.11 0.10 0.08 0.07 0.05 0.03 0.02 0.01 0.00 0.00 0.00 0.00 0.00 0.00 0.00 0.00 0.00 0.00 0.00 0.01 0.01 0.02 0.03 0.04 0.04 0.05
1.41 1.44 1.36 1.30 1.19 1.06 0.90 0.72 0.53 0.44 0.38 0.36 0.34 0.28 0.22 0.17 0.13 0.11 0.10 0.09 0.07 0.05 0.03 0.02 0.01 0.00 0.00 0.00 0.00 0.00 0.00 0.00 0.00 0.00 0.00 0.00 0.00 0.01 0.01 0.02 0.03 0.05 0.08
1.31 1.37 1.38 1.32 1.20 1.13 0.99 0.81 0.62 0.50 0.45 0.43 0.38 0.30 0.26 0.20 0.16 0.13 0.11 0.08 0.06 0.05 0.03 0.01 0.00 0.00 0.00 0.00 0.00 0.00 0.00 0.00 0.00 0.00 0.00 0.00 0.00 0.00 0.00 0.02 0.03 0.08 0.13
1.30 1.39 1.37 1.35 1.31 1.14 1.03 0.92 0.77 0.63 0.51 0.46 0.41 0.35 0.30 0.24 0.19 0.16 0.13 0.09 0.06 0.05 0.04 0.03 0.02 0.01 0.00 0.00 0.00 0.00 0.00 0.00 0.00 0.00 0.00 0.00 0.00 0.00 0.00 0.01 0.04 0.09 0.14
1.36 1.45 1.44 1.34 1.31 1.20 1.07 1.00 0.89 0.75 0.62 0.50 0.48 0.41 0.33 0.29 0.25 0.21 0.15 0.12 0.10 0.08 0.06 0.04 0.03 0.02 0.01 0.01 0.01 0.01 0.01 0.01 0.00 0.00 0.00 0.00 0.00 0.00 0.00 0.01 0.03 0.06 0.11
1.40 1.50 1.53 1.49 1.40 1.38 1.33 1.21 1.10 0.96 0.77 0.67 0.60 0.51 0.38 0.32 0.30 0.27 0.21 0.17 0.16 0.12 0.09 0.06 0.04 0.04 0.04 0.04 0.03 0.02 0.02 0.01 0.01 0.01 0.00 0.00 0.00 0.01 0.01 0.02 0.02 0.03 0.06
1.56 1.66 1.66 1.63 1.60 1.69 1.69 1.56 1.34 1.16 0.94 0.80 0.72 0.61 0.52 0.43 0.37 0.32 0.27 0.27 0.26 0.21 0.16 0.12 0.10 0.08 0.08 0.08 0.07 0.03 0.02 0.02 0.01 0.01 0.01 0.01 0.01 0.02 0.03 0.03 0.03 0.02 0.02
1.65 1.73 1.74 1.70 1.71 1.74 1.71 1.57 1.38 1.18 1.10 0.97 0.86 0.79 0.71 0.64 0.60 0.49 0.36 0.34 0.34 0.30 0.28 0.24 0.20 0.18 0.16 0.15 0.11 0.06 0.03 0.02 0.01 0.01 0.01 0.02 0.02 0.03 0.04 0.04 0.03 0.03 0.02
1.53 1.77 1.84 1.82 1.83 1.72 1.58 1.61 1.57 1.50 1.36 1.25 1.16 1.02 0.86 0.78 0.76 0.70 0.61 0.54 0.49 0.44 0.40 0.37 0.34 0.28 0.22 0.24 0.21 0.17 0.07 0.03 0.01 0.02 0.03 0.02 0.03 0.03 0.03 0.04 0.04 0.03 0.03
1.30 1.62 1.79 1.89 1.92 1.92 1.86 1.98 1.91 1.79 1.54 1.28 1.10 1.06 1.01 0.95 0.92 0.86 0.82 0.80 0.75 0.68 0.59 0.56 0.53 0.46 0.38 0.34 0.33 0.33 0.19 0.08 0.04 0.03 0.03 0.03 0.03 0.03 0.04 0.04 0.05 0.05 0.04
1.10 1.33 1.53 1.80 1.97 2.05 2.11 2.06 1.94 1.73 1.48 1.24 1.19 1.28 1.27 1.17 1.06 1.02 0.97 0.93 0.91 0.82 0.72 0.73 0.73 0.65 0.59 0.49 0.44 0.38 0.31 0.22 0.18 0.10 0.05 0.05 0.05 0.04 0.05 0.06 0.06 0.06 0.05
1.00 1.19 1.32 1.53 1.82 1.91 1.88 1.87 1.94 1.81 1.58 1.45 1.39 1.35 1.31 1.21 1.10 1.02 0.99 0.99 0.95 0.90 0.82 0.80 0.79 0.76 0.72 0.64 0.54 0.48 0.43 0.32 0.23 0.21 0.13 0.08 0.08 0.08 0.09 0.08 0.07 0.07 0.07
0.83 1.03 1.21 1.29 1.49 1.62 1.61 1.68 1.76 1.68 1.60 1.49 1.35 1.27 1.25 1.20 1.09 1.02 0.96 0.95 0.96 0.92 0.86 0.84 0.86 0.87 0.83 0.73 0.61 0.52 0.49 0.42 0.33 0.33 0.29 0.19 0.17 0.15 0.14 0.13 0.12 0.12 0.13

GEFSSE_prec_meanprecacc_120.txt.gz
Total_Precipitation_Accumulation
0.02 0.05 0.13 0.11 0.11 0.11 0.12 0.13 0.14 0.15 0.17 0.17 0.16 0.17 0.20 0.20 0.16 0.12 0.13 0.16 0.19 0.25 0.31 0.31 0.35 0.38 0.36 0.34 0.29 0.14 0.06 0.04 0.04 0.03 0.04 0.05 0.07 0.08 0.07 0.07 0.08 0.09 0.12
0.02 0.04 0.12 0.11 0.12 0.13 0.14 0.14 0.12 0.12 0.15 0.17 0.18 0.20 0.24 0.21 0.16 0.14 0.15 0.17 0.21 0.28 0.30 0.29 0.24 0.20 0.20 0.19 0.13 0.06 0.03 0.01 0.01 0.00 0.01 0.01 0.04 0.06 0.06 0.07 0.08 0.10 0.13
0.02 0.05 0.12 0.12 0.13 0.14 0.14 0.13 0.10 0.10 0.13 0.16 0.19 0.23 0.24 0.20 0.18 0.18 0.19 0.19 0.24 0.27 0.25 0.19 0.14 0.08 0.06 0.04 0.03 0.02 0.01 0.01 0.00 0.00 0.01 0.02 0.03 0.05 0.06 0.07 0.08 0.10 0.10
0.03 0.06 0.12 0.14 0.15 0.15 0.13 0.12 0.12 0.13 0.15 0.17 0.20 0.25 0.23 0.20 0.20 0.18 0.18 0.18 0.19 0.17 0.15 0.10 0.07 0.03 0.02 0.01 0.01 0.01 0.00 0.00 0.00 0.00 0.01 0.02 0.02 0.06 0.08 0.09 0.09 0.08 0.08
0.05 0.08 0.15 0.18 0.20 0.19 0.17 0.15 0.15 0.16 0.19 0.20 0.22 0.24 0.23 0.21 0.20 0.18 0.16 0.14 0.13 0.09 0.06 0.06 0.03 0.02 0.01 0.01 0.01 0.00 0.00 0.00 0.00 0.00 0.01 0.02 0.04 0.09 0.09 0.09 0.10 0.10 0.11
0.09 0.12 0.18 0.19 0.23 0.24 0.23 0.22 0.21 0.21 0.22 0.25 0.25 0.25 0.26 0.24 0.22 0.22 0.18 0.11 0.08 0.06 0.04 0.03 0.02 0.02 0.01 0.00 0.00 0.00 0.00 0.00 0.00 0.00 0.01 0.03 0.07 0.14 0.13 0.12 0.13 0.15 0.17
0.17 0.21 0.24 0.24 0.27 0.26 0.26 0.26 0.25 0.26 0.28 0.31 0.30 0.30 0.30 0.28 0.23 0.21 0.18 0.09 0.05 0.05 0.04 0.03 0.02 0.01 0.01 0.00 0.01 0.00 0.00 0.00 0.00 0.00 0.01 0.03 0.07 0.13 0.13 0.12 0.13 0.15 0.17
0.28 0.34 0.35 0.33 0.34 0.31 0.29 0.29 0.28 0.31 0.34 0.37 0.37 0.37 0.38 0.34 0.28 0.20 0.16 0.09 0.06 0.05 0.03 0.03 0.02 0.01 0.01 0.01 0.01 0.00 0.00 0.00 0.00 0.01 0.02 0.02 0.04 0.09 0.10 0.09 0.09 0.09 0.10
0.52 0.53 0.53 0.48 0.42 0.37 0.34 0.32 0.31 0.34 0.38 0.39 0.39 0.39 0.40 0.38 0.31 0.22 0.15 0.09 0.07 0.06 0.04 0.03 0.02 0.02 0.01 0.01 0.01 0.00 0.00 0.00 0.00 0.01 0.01 0.02 0.05 0.09 0.08 0.08 0.08 0.07 0.07
0.82 0.77 0.71 0.66 0.60 0.53 0.46 0.38 0.35 0.37 0.40 0.41 0.35 0.30 0.29 0.31 0.30 0.25 0.15 0.12 0.08 0.08 0.07 0.04 0.03 0.03 0.02 0.01 0.01 0.00 0.00 0.00 0.00 0.00 0.01 0.02 0.05 0.08 0.08 0.07 0.07 0.07 0.07
1.12 1.00 0.87 0.77 0.73 0.63 0.56 0.45 0.40 0.41 0.44 0.41 0.33 0.25 0.24 0.29 0.28 0.24 0.14 0.11 0.10 0.08 0.08 0.06 0.04 0.02 0.01 0.00 0.00 0.00 0.00 0.00 0.00 0.00 0.01 0.02 0.04 0.06 0.06 0.06 0.06 0.07 0.08
1.24 1.13 1.02 0.89 0.79 0.72 0.63 0.52 0.49 0.44 0.42 0.38 0.29 0.24 0.23 0.23 0.23 0.18 0.15 0.10 0.10 0.08 0.07 0.06 0.05 0.02 0.01 0.00 0.00 0.00 0.00 0.00 0.00 0.00 0.01 0.01 0.02 0.04 0.04 0.04 0.06 0.06 0.06
1.44 1.35 1.21 1.07 0.95 0.87 0.75 0.60 0.52 0.48 0.43 0.39 0.31 0.26 0.23 0.24 0.25 0.23 0.20 0.15 0.14 0.09 0.07 0.05 0.03 0.01 0.00 0.00 0.00 0.00 0.00 0.00 0.00 0.00 0.00 0.00 0.01 0.02 0.03 0.03 0.04 0.05 0.05
1.54 1.45 1.39 1.29 1.13 1.01 0.84 0.68 0.57 0.51 0.45 0.41 0.36 0.33 0.30 0.25 0.21 0.20 0.18 0.14 0.13 0.09 0.07 0.05 0.02 0.01 0.00 0.00 0.00 0.00 0.00 0.00 0.00 0.00 0.00 0.00 0.01 0.01 0.02 0.03 0.04 0.04 0.06
1.41 1.44 1.36 1.31 1.19 1.07 0.92 0.76 0.60 0.54 0.47 0.43 0.43 0.40 0.35 0.27 0.21 0.19 0.20 0.19 0.16 0.11 0.08 0.05 0.03 0.02 0.01 0.00 0.00 0.00 0.00 0.00 0.00 0.00 0.00 0.00 0.00 0.01 0.01 0.02 0.03 0.06 0.09
1.31 1.37 1.38 1.32 1.21 1.13 1.00 0.83 0.65 0.57 0.53 0.53 0.48 0.41 0.37 0.30 0.25 0.22 0.20 0.18 0.15 0.13 0.11 0.07 0.04 0.03 0.02 0.01 0.00 0.00 0.00 0.00 0.00 0.00 0.00 0.00 0.00 0.00 0.01 0.02 0.04 0.08 0.13
1.30 1.39 1.37 1.35 1.32 1.15 1.04 0.94 0.80 0.67 0.60 0.57 0.51 0.44 0.41 0.34 0.27 0.24 0.22 0.19 0.15 0.14 0.13 0.11 0.09 0.07 0.04 0.02 0.01 0.00 0.00 0.00 0.00 0.00 0.00 0.00 0.00 0.00 0.00 0.01 0.04 0.09 0.14
1.36 1.45 1.44 1.35 1.31 1.20 1.07 1.02 0.91 0.78 0.69 0.61 0.60 0.53 0.46 0.41 0.36 0.30 0.23 0.18 0.18 0.18 0.17 0.15 0.12 0.10 0.07 0.04 0.02 0.01 0.01 0.01 0.00 0.00 0.00 0.00 0.00 0.00 0.00 0.01 0.03 0.07 0.11
1.40 1.50 1.53 1.49 1.41 1.39 1.34 1.22 1.12 0.99 0.81 0.75 0.70 0.63 0.52 0.46 0.41 0.37 0.29 0.24 0.26 0.25 0.20 0.16 0.12 0.12 0.11 0.08 0.06 0.04 0.02 0.01 0.01 0.01 0.00 0.00 0.00 0.01 0.01 0.02 0.02 0.03 0.06
1.56 1.66 1.66 1.64 1.60 1.69 1.70 1.57 1.36 1.19 0.98 0.86 0.81 0.70 0.64 0.58 0.50 0.41 0.35 0.34 0.36 0.34 0.28 0.23 0.19 0.16 0.15 0.14 0.11 0.05 0.03 0.02 0.02 0.01 0.01 0.01 0.01 0.02 0.03 0.03 0.03 0.02 0.02
1.65 1.74 1.75 1.71 1.71 1.74 1.72 1.59 1.39 1.20 1.13 1.01 0.93 0.88 0.82 0.77 0.74 0.60 0.44 0.42 0.43 0.40 0.38 0.36 0.34 0.32 0.27 0.23 0.18 0.10 0.05 0.03 0.02 0.01 0.02 0.02 0.02 0.03 0.04 0.04 0.03 0.03 0.02
1.53 1.77 1.85 1.83 1.85 1.72 1.59 1.63 1.60 1.52 1.38 1.27 1.21 1.11 0.97 0.90 0.89 0.81 0.70 0.62 0.58 0.52 0.49 0.48 0.48 0.44 0.39 0.39 0.34 0.28 0.15 0.07 0.03 0.02 0.03 0.03 0.03 0.03 0.03 0.04 0.04 0.04 0.03
1.31 1.62 1.80 1.91 1.94 1.92 1.87 1.99 1.93 1.81 1.58 1.31 1.14 1.13 1.10 1.05 1.02 0.96 0.92 0.90 0.86 0.79 0.69 0.66 0.65 0.59 0.53 0.50 0.48 0.47 0.30 0.15 0.08 0.04 0.03 0.03 0.03 0.03 0.04 0.04 0.05 0.05 0.04
1.10 1.34 1.54 1.81 2.00 2.07 2.12 2.07 1.95 1.74 1.50 1.27 1.23 1.33 1.34 1.26 1.16 1.10 1.07 1.04 1.04 0.95 0.85 0.86 0.87 0.79 0.75 0.65 0.60 0.52 0.42 0.29 0.23 0.14 0.06 0.06 0.05 0.04 0.05 0.06 0.06 0.06 0.05
1.01 1.19 1.33 1.55 1.86 1.95 1.90 1.88 1.95 1.82 1.60 1.48 1.44 1.41 1.38 1.30 1.21 1.12 1.07 1.08 1.05 1.01 0.95 0.94 0.93 0.91 0.87 0.80 0.69 0.63 0.57 0.43 0.30 0.27 0.17 0.09 0.09 0.08 0.09 0.09 0.07 0.07 0.07
0.85 1.05 1.23 1.31 1.52 1.68 1.66 1.71 1.78 1.70 1.63 1.53 1.39 1.32 1.32 1.28 1.17 1.10 1.04 1.02 1.03 1.00 0.95 0.94 0.98 1.00 0.96 0.86 0.74 0.65 0.61 0.52 0.41 0.39 0.34 0.22 0.19 0.16 0.14 0.13 0.12 0.12 0.13

GEFSSE_prec_meanprecacc_126.txt.gz
Total_Precipitation_Accumulation
0.02 0.06 0.15 0.13 0.13 0.12 0.13 0.15 0.15 0.16 0.17 0.18 0.17 0.17 0.21 0.20 0.16 0.12 0.13 0.16 0.20 0.26 0.31 0.32 0.36 0.39 0.37 0.35 0.30 0.15 0.06 0.05 0.04 0.04 0.04 0.06 0.08 0.09 0.08 0.08 0.09 0.10 0.14
0.02 0.05 0.13 0.13 0.14 0.14 0.15 0.16 0.14 0.13 0.16 0.18 0.19 0.21 0.24 0.21 0.16 0.14 0.16 0.18 0.22 0.29 0.31 0.30 0.25 0.21 0.21 0.20 0.14 0.07 0.03 0.02 0.01 0.01 0.01 0.02 0.04 0.07 0.07 0.08 0.09 0.11 0.13
0.03 0.06 0.14 0.15 0.16 0.17 0.16 0.15 0.12 0.12 0.14 0.17 0.20 0.24 0.25 0.21 0.19 0.19 0.21 0.20 0.25 0.28 0.27 0.20 0.16 0.09 0.07 0.05 0.04 0.03 0.01 0.01 0.00 0.00 0.01 0.02 0.03 0.06 0.07 0.07 0.09 0.10 0.11
0.03 0.07 0.13 0.16 0.18 0.18 0.15 0.13 0.13 0.14 0.17 0.19 0.22 0.26 0.24 0.22 0.22 0.20 0.19 0.20 0.21 0.19 0.16 0.11 0.07 0.04 0.03 0.02 0.02 0.01 0.01 0.00 0.00 0.00 0.01 0.02 0.03 0.06 0.09 0.09 0.09 0.09 0.09
0.05 0.09 0.16 0.21 0.23 0.22 0.19 0.17 0.17 0.17 0.20 0.21 0.23 0.25 0.24 0.23 0.22 0.19 0.17 0.16 0.15 0.10 0.07 0.07 0.03 0.03 0.02 0.01 0.01 0.01 0.00 0.00 0.00 0.01 0.02 0.03 0.04 0.09 0.10 0.09 0.11 0.11 0.12
0.10 0.13 0.19 0.21 0.26 0.27 0.26 0.25 0.24 0.23 0.24 0.26 0.27 0.27 0.28 0.26 0.24 0.24 0.20 0.12 0.09 0.06 0.04 0.04 0.03 0.02 0.01 0.01 0.01 0.00 0.00 0.00 0.00 0.00 0.02 0.04 0.07 0.14 0.13 0.12 0.14 0.16 0.18
0.17 0.22 0.25 0.25 0.29 0.29 0.29 0.29 0.29 0.29 0.31 0.33 0.32 0.32 0.33 0.31 0.26 0.24 0.20 0.10 0.06 0.06 0.05 0.04 0.03 0.01 0.01 0.01 0.01 0.00 0.00 0.00 0.00 0.00 0.02 0.04 0.07 0.14 0.14 0.13 0.14 0.16 0.17
0.29 0.35 0.36 0.35 0.37 0.34 0.32 0.32 0.32 0.35 0.37 0.40 0.40 0.40 0.41 0.39 0.33 0.24 0.19 0.11 0.07 0.06 0.05 0.05 0.03 0.02 0.01 0.01 0.01 0.00 0.00 0.00 0.00 0.01 0.02 0.02 0.05 0.10 0.11 0.09 0.09 0.10 0.10
0.52 0.55 0.56 0.50 0.45 0.40 0.37 0.35 0.35 0.38 0.41 0.43 0.43 0.42 0.43 0.42 0.36 0.27 0.18 0.12 0.09 0.08 0.05 0.05 0.04 0.02 0.01 0.01 0.01 0.01 0.00 0.00 0.00 0.01 0.01 0.02 0.05 0.09 0.09 0.08 0.08 0.07 0.07
0.82 0.78 0.74 0.70 0.64 0.57 0.48 0.40 0.39 0.40 0.43 0.44 0.39 0.33 0.30 0.33 0.33 0.28 0.17 0.14 0.10 0.09 0.08 0.05 0.04 0.03 0.02 0.01 0.01 0.00 0.00 0.00 0.00 0.00 0.01 0.02 0.05 0.08 0.08 0.08 0.07 0.07 0.07
1.12 1.00 0.89 0.80 0.77 0.69 0.61 0.49 0.43 0.44 0.46 0.43 0.36 0.28 0.25 0.30 0.30 0.26 0.16 0.11 0.10 0.10 0.09 0.08 0.06 0.04 0.02 0.00 0.00 0.00 0.00 0.00 0.00 0.00 0.01 0.02 0.04 0.06 0.06 0.06 0.06 0.07 0.08
1.24 1.13 1.03 0.91 0.83 0.76 0.67 0.56 0.54 0.48 0.44 0.40 0.31 0.26 0.24 0.24 0.24 0.20 0.16 0.11 0.11 0.10 0.08 0.07 0.07 0.04 0.02 0.00 0.00 0.00 0.00 0.00 0.00 0.00 0.01 0.01 0.02 0.04 0.04 0.04 0.06 0.06 0.06
1.44 1.35 1.21 1.08 0.99 0.90 0.78 0.63 0.56 0.52 0.47 0.43 0.33 0.28 0.26 0.26 0.27 0.25 0.22 0.17 0.15 0.10 0.08 0.06 0.05 0.02 0.01 0.00 0.00 0.00 0.00 0.00 0.00 0.00 0.00 0.00 0.01 0.02 0.03 0.03 0.04 0.05 0.05
1.54 1.45 1.39 1.29 1.14 1.03 0.87 0.72 0.61 0.55 0.49 0.44 0.39 0.35 0.33 0.27 0.23 0.21 0.19 0.15 0.15 0.11 0.09 0.08 0.04 0.03 0.02 0.01 0.01 0.01 0.00 0.00 0.00 0.00 0.00 0.00 0.01 0.01 0.02 0.03 0.04 0.04 0.06
1.41 1.44 1.36 1.31 1.20 1.09 0.96 0.81 0.65 0.60 0.52 0.47 0.46 0.43 0.38 0.30 0.24 0.22 0.23 0.21 0.18 0.14 0.11 0.09 0.06 0.04 0.03 0.02 0.01 0.01 0.00 0.00 0.00 0.00 0.00 0.00 0.00 0.01 0.01 0.02 0.04 0.06 0.09
1.31 1.37 1.38 1.32 1.21 1.14 1.01 0.85 0.70 0.63 0.59 0.59 0.52 0.45 0.41 0.34 0.29 0.28 0.24 0.22 0.19 0.16 0.14 0.11 0.08 0.06 0.05 0.04 0.02 0.01 0.01 0.00 0.00 0.00 0.00 0.00 0.00 0.00 0.01 0.02 0.04 0.08 0.14
1.30 1.39 1.37 1.35 1.32 1.15 1.04 0.94 0.81 0.72 0.65 0.62 0.58 0.50 0.48 0.40 0.33 0.31 0.28 0.24 0.20 0.18 0.17 0.15 0.14 0.11 0.08 0.05 0.03 0.02 0.02 0.01 0.01 0.00 0.00 0.00 0.00 0.00 0.00 0.01 0.04 0.09 0.15
1.36 1.45 1.44 1.35 1.31 1.20 1.07 1.02 0.91 0.79 0.71 0.64 0.65 0.61 0.56 0.51 0.46 0.39 0.30 0.24 0.26 0.26 0.24 0.21 0.19 0.17 0.13 0.10 0.07 0.05 0.04 0.03 0.02 0.01 0.01 0.01 0.01 0.00 0.00 0.01 0.03 0.07 0.11
1.40 1.50 1.53 1.49 1.41 1.39 1.34 1.22 1.12 0.99 0.82 0.77 0.74 0.69 0.59 0.56 0.54 0.51 0.40 0.32 0.35 0.33 0.27 0.23 0.20 0.20 0.17 0.15 0.14 0.11 0.08 0.07 0.05 0.03 0.02 0.01 0.01 0.01 0.01 0.02 0.02 0.03 0.06
1.56 1.66 1.66 1.64 1.60 1.69 1.70 1.57 1.36 1.19 0.98 0.87 0.83 0.74 0.69 0.64 0.59 0.55 0.50 0.46 0.47 0.45 0.37 0.32 0.27 0.25 0.23 0.23 0.21 0.14 0.10 0.08 0.07 0.05 0.04 0.03 0.02 0.02 0.03 0.03 0.03 0.02 0.02
1.65 1.74 1.75 1.71 1.71 1.74 1.72 1.59 1.39 1.20 1.13 1.02 0.95 0.90 0.86 0.83 0.82 0.70 0.55 0.54 0.55 0.52 0.48 0.46 0.44 0.42 0.36 0.34 0.29 0.19 0.12 0.09 0.08 0.06 0.05 0.04 0.04 0.04 0.04 0.04 0.04 0.03 0.02
1.53 1.77 1.85 1.83 1.85 1.72 1.59 1.63 1.60 1.53 1.39 1.28 1.22 1.13 1.00 0.95 0.95 0.91 0.81 0.73 0.69 0.63 0.60 0.59 0.58 0.53 0.49 0.49 0.45 0.39 0.25 0.15 0.10 0.07 0.07 0.06 0.05 0.05 0.04 0.05 0.04 0.04 0.03
1.31 1.62 1.80 1.91 1.94 1.93 1.87 1.99 1.94 1.82 1.58 1.32 1.15 1.15 1.14 1.10 1.08 1.04 1.03 1.01 0.98 0.92 0.79 0.76 0.76 0.70 0.63 0.61 0.58 0.58 0.39 0.23 0.15 0.11 0.09 0.08 0.07 0.06 0.05 0.05 0.06 0.06 0.05
1.10 1.34 1.54 1.81 2.00 2.07 2.13 2.08 1.96 1.74 1.51 1.27 1.24 1.34 1.37 1.31 1.22 1.17 1.15 1.15 1.14 1.07 0.97 0.97 0.99 0.90 0.85 0.76 0.70 0.62 0.50 0.36 0.30 0.20 0.12 0.10 0.10 0.08 0.09 0.08 0.07 0.06 0.06
1.01 1.20 1.33 1.55 1.86 1.96 1.91 1.89 1.96 1.83 1.61 1.49 1.46 1.43 1.41 1.33 1.26 1.20 1.17 1.18 1.16 1.12 1.05 1.05 1.07 1.05 1.01 0.92 0.80 0.73 0.67 0.53 0.39 0.34 0.22 0.14 0.13 0.13 0.13 0.12 0.10 0.09 0.09
0.85 1.05 1.23 1.32 1.53 1.68 1.67 1.72 1.79 1.71 1.64 1.54 1.41 1.36 1.36 1.31 1.23 1.17 1.14 1.15 1.17 1.16 1.11 1.10 1.14 1.16 1.13 1.03 0.91 0.78 0.73 0.64 0.51 0.48 0.41 0.28 0.24 0.20 0.19 0.18 0.18 0.16 0.16

GEFSSE_prec_meanprecacc_132.txt.gz
Total_Precipitation_Accumulation
0.02 0.08 0.18 0.17 0.17 0.15 0.15 0.16 0.16 0.17 0.18 0.19 0.17 0.18 0.21 0.20 0.17 0.13 0.15 0.17 0.20 0.26 0.32 0.32 0.36 0.40 0.38 0.36 0.31 0.16 0.07 0.06 0.05 0.05 0.05 0.07 0.10 0.10 0.09 0.10 0.10 0.11 0.14
0.03 0.07 0.16 0.17 0.19 0.17 0.18 0.18 0.15 0.14 0.17 0.19 0.20 0.22 0.25 0.22 0.17 0.16 0.17 0.18 0.22 0.30 0.32 0.31 0.26 0.23 0.22 0.21 0.15 0.07 0.03 0.02 0.01 0.01 0.01 0.02 0.05 0.08 0.08 0.09 0.09 0.12 0.14
0.04 0.08 0.16 0.19 0.21 0.20 0.18 0.16 0.13 0.13 0.16 0.19 0.23 0.26 0.26 0.22 0.21 0.20 0.22 0.21 0.26 0.29 0.28 0.22 0.18 0.11 0.08 0.07 0.05 0.03 0.02 0.01 0.00 0.00 0.01 0.02 0.04 0.07 0.08 0.08 0.10 0.11 0.11
0.04 0.08 0.15 0.20 0.23 0.24 0.18 0.15 0.14 0.15 0.18 0.21 0.24 0.28 0.26 0.23 0.23 0.21 0.21 0.21 0.22 0.21 0.17 0.12 0.08 0.05 0.04 0.03 0.03 0.02 0.01 0.00 0.00 0.00 0.01 0.02 0.03 0.07 0.10 0.10 0.11 0.10 0.10
0.06 0.09 0.18 0.24 0.28 0.28 0.25 0.21 0.19 0.19 0.22 0.23 0.25 0.27 0.27 0.25 0.23 0.21 0.19 0.18 0.16 0.11 0.08 0.08 0.04 0.03 0.02 0.02 0.02 0.01 0.01 0.00 0.00 0.01 0.02 0.03 0.04 0.10 0.11 0.11 0.11 0.12 0.13
0.11 0.14 0.20 0.23 0.30 0.33 0.32 0.30 0.29 0.26 0.26 0.28 0.28 0.28 0.29 0.28 0.26 0.27 0.23 0.13 0.09 0.07 0.05 0.05 0.04 0.03 0.01 0.01 0.01 0.01 0.01 0.01 0.00 0.00 0.02 0.04 0.07 0.14 0.14 0.14 0.15 0.16 0.19
0.19 0.23 0.26 0.28 0.34 0.36 0.35 0.34 0.34 0.34 0.34 0.35 0.34 0.34 0.35 0.33 0.29 0.27 0.23 0.12 0.07 0.07 0.06 0.05 0.03 0.02 0.01 0.01 0.01 0.01 0.01 0.00 0.00 0.00 0.02 0.04 0.08 0.15 0.15 0.13 0.14 0.17 0.19
0.31 0.37 0.38 0.39 0.42 0.40 0.39 0.38 0.37 0.41 0.43 0.43 0.43 0.42 0.43 0.41 0.36 0.28 0.23 0.13 0.09 0.07 0.06 0.07 0.05 0.03 0.02 0.01 0.01 0.01 0.01 0.00 0.00 0.01 0.02 0.03 0.05 0.11 0.12 0.10 0.09 0.10 0.11
0.53 0.57 0.59 0.54 0.49 0.45 0.44 0.42 0.41 0.44 0.48 0.49 0.47 0.44 0.45 0.44 0.38 0.29 0.21 0.14 0.11 0.10 0.08 0.07 0.06 0.04 0.03 0.02 0.02 0.01 0.01 0.00 0.00 0.01 0.01 0.02 0.06 0.10 0.09 0.08 0.08 0.07 0.07
0.82 0.79 0.78 0.73 0.68 0.60 0.52 0.45 0.44 0.45 0.48 0.50 0.44 0.36 0.32 0.34 0.34 0.30 0.19 0.16 0.12 0.12 0.11 0.08 0.07 0.06 0.04 0.02 0.02 0.01 0.01 0.00 0.00 0.00 0.01 0.02 0.06 0.08 0.08 0.08 0.07 0.07 0.07
1.13 1.01 0.91 0.84 0.81 0.73 0.66 0.53 0.46 0.47 0.50 0.47 0.40 0.33 0.29 0.32 0.31 0.27 0.16 0.12 0.12 0.11 0.11 0.10 0.08 0.06 0.04 0.02 0.01 0.01 0.01 0.00 0.00 0.00 0.01 0.02 0.04 0.06 0.06 0.06 0.06 0.07 0.08
1.24 1.14 1.05 0.93 0.87 0.81 0.72 0.61 0.57 0.50 0.47 0.44 0.34 0.29 0.28 0.26 0.26 0.21 0.18 0.12 0.12 0.11 0.10 0.10 0.10 0.07 0.04 0.01 0.01 0.01 0.01 0.00 0.00 0.00 0.01 0.01 0.02 0.04 0.04 0.05 0.06 0.06 0.06
1.44 1.36 1.22 1.10 1.01 0.93 0.83 0.66 0.60 0.55 0.50 0.45 0.37 0.32 0.29 0.29 0.28 0.26 0.23 0.18 0.16 0.12 0.10 0.08 0.08 0.04 0.02 0.01 0.01 0.01 0.00 0.01 0.00 0.00 0.00 0.00 0.01 0.02 0.03 0.04 0.05 0.05 0.06
1.54 1.46 1.39 1.30 1.16 1.05 0.90 0.76 0.65 0.59 0.53 0.47 0.41 0.39 0.37 0.30 0.25 0.22 0.20 0.16 0.16 0.13 0.11 0.08 0.05 0.04 0.04 0.03 0.02 0.02 0.01 0.01 0.01 0.00 0.00 0.00 0.01 0.01 0.02 0.03 0.04 0.05 0.06
1.41 1.44 1.36 1.31 1.21 1.11 0.99 0.85 0.68 0.63 0.55 0.51 0.50 0.46 0.41 0.33 0.26 0.23 0.24 0.22 0.19 0.16 0.13 0.10 0.07 0.06 0.05 0.04 0.03 0.02 0.02 0.01 0.01 0.00 0.00 0.00 0.00 0.01 0.01 0.03 0.04 0.06 0.09
1.31 1.37 1.38 1.32 1.21 1.15 1.03 0.89 0.75 0.68 0.64 0.63 0.57 0.49 0.45 0.39 0.32 0.31 0.27 0.24 0.20 0.18 0.16 0.13 0.10 0.09 0.07 0.06 0.05 0.03 0.03 0.02 0.02 0.02 0.01 0.01 0.00 0.00 0.01 0.02 0.04 0.09 0.15
1.30 1.39 1.37 1.35 1.32 1.15 1.05 0.95 0.85 0.78 0.71 0.67 0.62 0.56 0.53 0.45 0.39 0.36 0.32 0.27 0.22 0.22 0.21 0.20 0.18 0.15 0.11 0.08 0.06 0.05 0.04 0.04 0.03 0.03 0.03 0.02 0.01 0.01 0.01 0.02 0.05 0.10 0.16
1.36 1.45 1.44 1.35 1.31 1.20 1.07 1.02 0.92 0.83 0.78 0.70 0.70 0.67 0.62 0.57 0.53 0.48 0.37 0.28 0.31 0.33 0.31 0.28 0.24 0.20 0.15 0.12 0.10 0.08 0.07 0.05 0.04 0.04 0.03 0.03 0.02 0.02 0.01 0.02 0.04 0.08 0.13
1.40 1.50 1.53 1.49 1.41 1.39 1.34 1.22 1.12 1.00 0.85 0.81 0.78 0.73 0.64 0.63 0.62 0.58 0.46 0.39 0.43 0.41 0.34 0.30 0.25 0.24 0.21 0.19 0.17 0.15 0.12 0.09 0.07 0.06 0.05 0.04 0.04 0.03 0.03 0.03 0.04 0.05 0.08
1.56 1.66 1.66 1.64 1.60 1.69 1.70 1.57 1.36 1.19 0.99 0.88 0.84 0.76 0.72 0.69 0.66 0.63 0.56 0.53 0.56 0.52 0.43 0.38 0.33 0.31 0.28 0.29 0.27 0.19 0.15 0.14 0.11 0.09 0.08 0.07 0.07 0.07 0.07 0.06 0.06 0.05 0.05
1.65 1.74 1.75 1.71 1.71 1.74 1.72 1.59 1.39 1.20 1.13 1.02 0.95 0.90 0.87 0.85 0.87 0.79 0.65 0.64 0.66 0.60 0.55 0.53 0.51 0.48 0.42 0.41 0.36 0.25 0.18 0.15 0.12 0.09 0.08 0.08 0.08 0.08 0.08 0.08 0.08 0.06 0.04
1.53 1.77 1.85 1.83 1.85 1.72 1.59 1.63 1.60 1.53 1.39 1.28 1.23 1.13 1.00 0.96 0.97 0.96 0.92 0.87 0.83 0.76 0.70 0.68 0.67 0.61 0.56 0.56 0.51 0.46 0.30 0.19 0.13 0.10 0.10 0.09 0.09 0.09 0.08 0.08 0.08 0.07 0.06
1.31 1.62 1.80 1.91 1.94 1.93 1.87 1.99 1.94 1.82 1.58 1.32 1.15 1.15 1.14 1.11 1.09 1.07 1.07 1.08 1.07 1.02 0.91 0.87 0.86 0.80 0.74 0.71 0.68 0.68 0.47 0.27 0.18 0.14 0.12 0.11 0.11 0.10 0.10 0.10 0.09 0.09 0.08
1.10 1.34 1.54 1.81 2.00 2.07 2.13 2.08 1.96 1.74 1.51 1.27 1.24 1.34 1.37 1.31 1.23 1.18 1.17 1.17 1.17 1.11 1.03 1.07 1.10 1.02 0.98 0.90 0.85 0.75 0.61 0.43 0.36 0.24 0.15 0.14 0.14 0.12 0.12 0.13 0.12 0.11 0.10
1.01 1.20 1.33 1.55 1.86 1.96 1.91 1.89 1.96 1.83 1.61 1.49 1.46 1.43 1.41 1.34 1.27 1.21 1.19 1.20 1.18 1.15 1.08 1.10 1.15 1.16 1.13 1.06 0.96 0.89 0.85 0.67 0.49 0.42 0.28 0.18 0.18 0.17 0.17 0.17 0.15 0.14 0.14
0.85 1.05 1.23 1.32 1.53 1.68 1.67 1.72 1.79 1.71 1.64 1.54 1.41 1.36 1.36 1.32 1.24 1.18 1.15 1.17 1.19 1.18 1.13 1.13 1.18 1.22 1.22 1.14 1.03 0.92 0.88 0.79 0.64 0.60 0.51 0.35 0.30 0.25 0.25 0.25 0.24 0.23 0.23

GEFSSE_prec_meanprecacc_138.txt.gz
Total_Precipitation_Accumulation
0.03 0.09 0.21 0.21 0.21 0.19 0.18 0.18 0.18 0.19 0.19 0.20 0.18 0.19 0.22 0.21 0.18 0.14 0.15 0.18 0.21 0.27 0.32 0.33 0.37 0.41 0.39 0.37 0.32 0.17 0.09 0.08 0.06 0.05 0.06 0.08 0.11 0.11 0.10 0.10 0.11 0.12 0.15
0.04 0.08 0.18 0.20 0.22 0.21 0.21 0.20 0.17 0.16 0.19 0.21 0.22 0.23 0.27 0.23 0.18 0.17 0.18 0.19 0.23 0.30 0.33 0.31 0.28 0.25 0.24 0.23 0.17 0.08 0.04 0.02 0.01 0.01 0.01 0.03 0.06 0.08 0.09 0.10 0.10 0.12 0.15
0.04 0.09 0.18 0.22 0.25 0.24 0.21 0.19 0.15 0.14 0.17 0.21 0.25 0.28 0.28 0.24 0.22 0.22 0.23 0.23 0.27 0.30 0.29 0.22 0.18 0.12 0.09 0.08 0.06 0.04 0.02 0.01 0.01 0.00 0.01 0.03 0.04 0.08 0.10 0.10 0.10 0.12 0.12
0.04 0.09 0.18 0.24 0.28 0.28 0.21 0.18 0.17 0.17 0.20 0.23 0.25 0.30 0.27 0.24 0.24 0.22 0.23 0.24 0.24 0.21 0.18 0.12 0.09 0.05 0.04 0.04 0.03 0.02 0.01 0.00 0.00 0.00 0.01 0.02 0.03 0.08 0.11 0.12 0.12 0.11 0.10
0.06 0.11 0.20 0.28 0.32 0.33 0.29 0.24 0.22 0.21 0.24 0.25 0.27 0.29 0.28 0.26 0.24 0.22 0.22 0.20 0.17 0.11 0.09 0.09 0.05 0.04 0.03 0.02 0.02 0.01 0.01 0.01 0.00 0.01 0.02 0.03 0.05 0.11 0.12 0.12 0.13 0.12 0.14
0.12 0.17 0.23 0.27 0.35 0.38 0.37 0.35 0.32 0.29 0.29 0.30 0.31 0.31 0.31 0.29 0.27 0.28 0.25 0.15 0.10 0.07 0.05 0.05 0.04 0.03 0.02 0.01 0.01 0.01 0.01 0.01 0.00 0.00 0.02 0.04 0.07 0.15 0.15 0.15 0.16 0.17 0.20
0.21 0.26 0.30 0.31 0.38 0.40 0.39 0.39 0.39 0.39 0.38 0.38 0.36 0.36 0.38 0.35 0.31 0.29 0.26 0.14 0.08 0.08 0.07 0.06 0.04 0.03 0.02 0.01 0.01 0.02 0.01 0.01 0.00 0.01 0.02 0.04 0.08 0.15 0.15 0.14 0.16 0.18 0.20
0.33 0.39 0.41 0.42 0.46 0.44 0.44 0.43 0.42 0.47 0.48 0.48 0.46 0.45 0.46 0.44 0.38 0.30 0.24 0.14 0.10 0.08 0.08 0.08 0.06 0.03 0.02 0.02 0.02 0.01 0.01 0.00 0.00 0.01 0.02 0.03 0.05 0.11 0.12 0.10 0.10 0.11 0.12
0.56 0.61 0.63 0.58 0.52 0.49 0.48 0.45 0.44 0.47 0.52 0.54 0.51 0.48 0.48 0.46 0.40 0.30 0.22 0.15 0.12 0.11 0.09 0.08 0.08 0.05 0.04 0.03 0.02 0.02 0.01 0.01 0.00 0.01 0.01 0.02 0.06 0.11 0.09 0.08 0.08 0.08 0.08
0.85 0.83 0.83 0.79 0.72 0.64 0.55 0.48 0.46 0.47 0.50 0.53 0.48 0.41 0.35 0.35 0.36 0.31 0.20 0.16 0.13 0.13 0.12 0.09 0.08 0.07 0.05 0.04 0.03 0.02 0.01 0.01 0.00 0.01 0.01 0.02 0.06 0.09 0.08 0.08 0.08 0.07 0.08
1.15 1.04 0.95 0.89 0.86 0.77 0.70 0.56 0.49 0.49 0.52 0.49 0.42 0.36 0.33 0.35 0.33 0.28 0.17 0.13 0.12 0.12 0.13 0.12 0.10 0.08 0.05 0.03 0.02 0.02 0.01 0.01 0.00 0.00 0.01 0.02 0.05 0.06 0.06 0.06 0.07 0.07 0.08
1.26 1.15 1.07 0.97 0.91 0.86 0.77 0.66 0.62 0.54 0.50 0.47 0.36 0.32 0.32 0.32 0.30 0.23 0.18 0.12 0.12 0.12 0.12 0.12 0.12 0.09 0.05 0.02 0.02 0.02 0.02 0.01 0.01 0.01 0.01 0.01 0.03 0.04 0.04 0.05 0.06 0.06 0.07
1.45 1.37 1.23 1.11 1.05 0.98 0.89 0.73 0.67 0.60 0.54 0.51 0.40 0.34 0.32 0.33 0.33 0.29 0.25 0.19 0.17 0.13 0.11 0.10 0.10 0.06 0.04 0.03 0.02 0.02 0.01 0.02 0.02 0.01 0.01 0.01 0.02 0.02 0.04 0.05 0.06 0.06 0.06
1.54 1.46 1.40 1.31 1.17 1.09 0.95 0.83 0.73 0.65 0.58 0.52 0.46 0.42 0.39 0.34 0.28 0.26 0.23 0.18 0.18 0.15 0.13 0.10 0.08 0.06 0.05 0.04 0.04 0.03 0.02 0.02 0.02 0.02 0.01 0.01 0.01 0.02 0.03 0.04 0.05 0.06 0.07
1.41 1.44 1.36 1.31 1.21 1.12 1.02 0.89 0.74 0.70 0.62 0.57 0.55 0.51 0.44 0.35 0.28 0.26 0.27 0.25 0.22 0.19 0.16 0.12 0.09 0.07 0.07 0.06 0.05 0.04 0.03 0.02 0.02 0.02 0.01 0.01 0.01 0.01 0.02 0.04 0.06 0.08 0.11
1.32 1.37 1.38 1.32 1.21 1.15 1.04 0.90 0.77 0.71 0.69 0.70 0.63 0.54 0.49 0.41 0.34 0.33 0.30 0.27 0.23 0.20 0.18 0.15 0.12 0.11 0.09 0.08 0.07 0.05 0.05 0.04 0.03 0.03 0.03 0.03 0.03 0.02 0.01 0.03 0.06 0.12 0.19
1.30 1.39 1.37 1.35 1.32 1.15 1.05 0.96 0.86 0.80 0.74 0.72 0.68 0.61 0.57 0.47 0.41 0.39 0.35 0.29 0.24 0.24 0.24 0.22 0.20 0.18 0.13 0.10 0.07 0.06 0.06 0.05 0.04 0.04 0.04 0.03 0.03 0.03 0.02 0.02 0.05 0.12 0.20
1.36 1.45 1.44 1.35 1.31 1.20 1.08 1.02 0.93 0.84 0.80 0.74 0.75 0.72 0.67 0.61 0.56 0.51 0.39 0.30 0.33 0.36 0.35 0.31 0.27 0.23 0.18 0.14 0.11 0.09 0.08 0.07 0.05 0.05 0.05 0.04 0.03 0.03 0.03 0.03 0.05 0.09 0.16
1.40 1.50 1.53 1.49 1.41 1.39 1.34 1.22 1.12 1.01 0.87 0.84 0.82 0.77 0.69 0.68 0.67 0.63 0.50 0.42 0.47 0.45 0.38 0.33 0.29 0.27 0.24 0.22 0.20 0.17 0.14 0.12 0.10 0.08 0.07 0.06 0.05 0.05 0.05 0.05 0.06 0.07 0.10
1.56 1.66 1.66 1.64 1.60 1.69 1.70 1.57 1.36 1.20 0.99 0.89 0.86 0.79 0.76 0.74 0.72 0.68 0.61 0.57 0.61 0.58 0.48 0.43 0.37 0.34 0.32 0.32 0.30 0.23 0.18 0.17 0.14 0.11 0.10 0.09 0.09 0.09 0.09 0.09 0.09 0.08 0.08
1.65 1.74 1.75 1.71 1.71 1.74 1.72 1.59 1.39 1.20 1.13 1.02 0.95 0.91 0.88 0.88 0.92 0.84 0.70 0.70 0.73 0.66 0.60 0.57 0.56 0.53 0.47 0.46 0.42 0.30 0.22 0.18 0.15 0.11 0.10 0.10 0.10 0.10 0.10 0.11 0.11 0.10 0.09
1.53 1.77 1.85 1.83 1.85 1.72 1.59 1.63 1.60 1.53 1.39 1.28 1.23 1.13 1.00 0.96 0.98 0.98 0.95 0.92 0.90 0.86 0.83 0.78 0.76 0.70 0.63 0.64 0.58 0.53 0.36 0.24 0.17 0.13 0.13 0.12 0.11 0.12 0.11 0.12 0.12 0.12 0.11
1.31 1.62 1.80 1.91 1.94 1.93 1.87 1.99 1.94 1.82 1.58 1.32 1.15 1.15 1.14 1.11 1.10 1.07 1.08 1.10 1.10 1.06 0.97 0.95 0.95 0.89 0.81 0.79 0.76 0.77 0.56 0.34 0.23 0.18 0.17 0.15 0.15 0.14 0.14 0.14 0.14 0.14 0.13
1.10 1.34 1.54 1.81 2.00 2.07 2.13 2.08 1.96 1.75 1.51 1.27 1.24 1.34 1.37 1.31 1.23 1.19 1.18 1.18 1.18 1.13 1.05 1.09 1.13 1.05 1.03 0.95 0.92 0.84 0.71 0.52 0.44 0.32 0.22 0.22 0.21 0.18 0.18 0.17 0.16 0.15 0.15
1.01 1.20 1.33 1.55 1.86 1.96 1.91 1.89 1.96 1.83 1.61 1.49 1.46 1.43 1.41 1.34 1.27 1.21 1.19 1.20 1.18 1.15 1.09 1.11 1.16 1.18 1.16 1.10 1.02 0.98 0.96 0.83 0.67 0.59 0.43 0.32 0.31 0.28 0.28 0.26 0.23 0.21 0.20
0.85 1.05 1.23 1.32 1.53 1.68 1.67 1.72 1.79 1.71 1.64 1.54 1.41 1.36 1.36 1.32 1.24 1.18 1.16 1.17 1.19 1.18 1.14 1.14 1.19 1.24 1.24 1.17 1.07 0.97 0.95 0.88 0.77 0.75 0.66 0.48 0.42 0.35 0.34 0.33 0.31 0.31 0.32

GEFSSE_prec_meanprecacc_144.txt.gz
Total_Precipitation_Accumulation
0.03 0.09 0.22 0.22 0.22 0.20 0.19 0.20 0.20 0.20 0.20 0.21 0.19 0.21 0.24 0.22 0.18 0.14 0.16 0.18 0.21 0.27 0.33 0.34 0.39 0.42 0.40 0.38 0.34 0.19 0.10 0.08 0.06 0.06 0.06 0.09 0.11 0.12 0.10 0.11 0.12 0.12 0.15
0.04 0.09 0.19 0.22 0.24 0.22 0.22 0.21 0.18 0.18 0.21 0.22 0.23 0.25 0.28 0.25 0.20 0.18 0.18 0.20 0.24 0.31 0.33 0.32 0.28 0.26 0.25 0.24 0.18 0.09 0.04 0.02 0.01 0.01 0.01 0.03 0.06 0.09 0.10 0.10 0.10 0.12 0.15
0.05 0.10 0.20 0.23 0.27 0.26 0.24 0.21 0.17 0.16 0.19 0.23 0.26 0.30 0.30 0.26 0.25 0.24 0.25 0.25 0.29 0.31 0.29 0.23 0.19 0.13 0.10 0.09 0.07 0.04 0.02 0.01 0.01 0.01 0.02 0.03 0.05 0.08 0.10 0.10 0.11 0.12 0.12
0.04 0.11 0.20 0.27 0.30 0.30 0.22 0.20 0.20 0.20 0.22 0.24 0.28 0.31 0.28 0.25 0.25 0.24 0.24 0.26 0.25 0.22 0.18 0.13 0.09 0.06 0.05 0.04 0.03 0.02 0.01 0.01 0.00 0.00 0.02 0.03 0.04 0.08 0.12 0.12 0.12 0.11 0.11
0.08 0.13 0.22 0.30 0.35 0.35 0.31 0.26 0.24 0.24 0.26 0.27 0.30 0.31 0.28 0.27 0.25 0.24 0.25 0.23 0.19 0.12 0.09 0.09 0.05 0.04 0.03 0.02 0.02 0.02 0.01 0.01 0.00 0.01 0.02 0.03 0.05 0.11 0.12 0.13 0.13 0.13 0.14
0.15 0.21 0.26 0.29 0.37 0.40 0.38 0.36 0.34 0.31 0.30 0.32 0.33 0.33 0.33 0.31 0.28 0.30 0.27 0.17 0.11 0.08 0.06 0.06 0.05 0.04 0.02 0.02 0.02 0.01 0.01 0.01 0.00 0.01 0.02 0.04 0.07 0.15 0.15 0.15 0.17 0.18 0.20
0.24 0.30 0.34 0.34 0.40 0.41 0.40 0.41 0.41 0.41 0.40 0.39 0.38 0.38 0.41 0.38 0.32 0.30 0.27 0.15 0.09 0.09 0.08 0.07 0.05 0.04 0.03 0.02 0.02 0.02 0.01 0.01 0.01 0.01 0.02 0.04 0.08 0.15 0.15 0.14 0.16 0.19 0.21
0.35 0.42 0.44 0.45 0.49 0.47 0.46 0.44 0.44 0.49 0.51 0.50 0.48 0.47 0.49 0.47 0.40 0.30 0.25 0.15 0.10 0.09 0.09 0.09 0.07 0.05 0.03 0.02 0.02 0.02 0.02 0.01 0.01 0.01 0.03 0.03 0.06 0.11 0.12 0.10 0.10 0.11 0.13
0.59 0.63 0.67 0.61 0.55 0.53 0.50 0.47 0.45 0.49 0.55 0.57 0.53 0.51 0.50 0.49 0.42 0.31 0.22 0.16 0.13 0.12 0.10 0.09 0.08 0.06 0.05 0.04 0.03 0.03 0.02 0.01 0.00 0.01 0.02 0.03 0.06 0.11 0.09 0.08 0.08 0.08 0.08
0.89 0.87 0.87 0.84 0.76 0.67 0.58 0.49 0.47 0.48 0.52 0.56 0.51 0.43 0.38 0.38 0.38 0.32 0.20 0.16 0.13 0.14 0.13 0.10 0.09 0.08 0.06 0.04 0.03 0.03 0.02 0.01 0.00 0.01 0.01 0.03 0.06 0.10 0.09 0.08 0.08 0.08 0.08
1.18 1.08 1.00 0.95 0.93 0.83 0.75 0.59 0.51 0.51 0.54 0.51 0.44 0.38 0.36 0.39 0.37 0.30 0.17 0.13 0.13 0.13 0.13 0.13 0.11 0.09 0.06 0.03 0.03 0.02 0.02 0.01 0.01 0.01 0.02 0.03 0.05 0.07 0.07 0.07 0.07 0.08 0.09
1.28 1.18 1.11 1.02 0.97 0.92 0.82 0.71 0.67 0.58 0.54 0.50 0.40 0.35 0.35 0.37 0.37 0.28 0.20 0.12 0.13 0.12 0.12 0.13 0.13 0.09 0.06 0.03 0.03 0.02 0.02 0.02 0.02 0.02 0.02 0.03 0.04 0.06 0.06 0.07 0.08 0.07 0.08
1.47 1.39 1.26 1.15 1.10 1.06 0.96 0.80 0.71 0.65 0.59 0.54 0.45 0.41 0.38 0.41 0.41 0.38 0.30 0.21 0.19 0.14 0.13 0.12 0.12 0.07 0.05 0.04 0.04 0.03 0.02 0.03 0.04 0.03 0.03 0.02 0.03 0.05 0.06 0.07 0.07 0.07 0.07
1.56 1.48 1.41 1.33 1.21 1.14 1.02 0.92 0.78 0.69 0.62 0.56 0.49 0.46 0.45 0.41 0.36 0.34 0.31 0.23 0.22 0.19 0.17 0.14 0.11 0.08 0.08 0.07 0.06 0.05 0.04 0.04 0.04 0.04 0.03 0.02 0.02 0.03 0.06 0.07 0.07 0.07 0.08
1.43 1.46 1.38 1.33 1.23 1.15 1.07 0.97 0.81 0.75 0.66 0.61 0.59 0.55 0.48 0.40 0.34 0.33 0.36 0.33 0.27 0.24 0.21 0.17 0.13 0.10 0.09 0.08 0.08 0.06 0.05 0.05 0.04 0.04 0.03 0.02 0.02 0.02 0.03 0.05 0.07 0.09 0.13
1.33 1.39 1.40 1.34 1.23 1.17 1.07 0.96 0.83 0.76 0.74 0.75 0.68 0.59 0.54 0.46 0.39 0.38 0.36 0.34 0.29 0.26 0.23 0.19 0.16 0.14 0.12 0.11 0.09 0.07 0.06 0.05 0.05 0.05 0.04 0.04 0.03 0.03 0.02 0.03 0.08 0.14 0.21
1.31 1.40 1.38 1.36 1.34 1.17 1.08 1.00 0.91 0.85 0.80 0.77 0.74 0.65 0.60 0.51 0.45 0.44 0.40 0.33 0.29 0.29 0.28 0.26 0.24 0.22 0.17 0.12 0.09 0.08 0.07 0.06 0.05 0.05 0.05 0.05 0.04 0.03 0.03 0.03 0.06 0.13 0.22
1.37 1.45 1.45 1.35 1.34 1.22 1.09 1.05 0.97 0.88 0.85 0.79 0.81 0.78 0.71 0.65 0.60 0.55 0.44 0.36 0.38 0.42 0.40 0.34 0.30 0.26 0.21 0.17 0.14 0.11 0.10 0.09 0.07 0.06 0.06 0.05 0.05 0.04 0.03 0.03 0.06 0.10 0.17
1.41 1.50 1.54 1.50 1.41 1.40 1.35 1.24 1.15 1.04 0.90 0.88 0.87 0.83 0.75 0.72 0.70 0.66 0.54 0.47 0.52 0.49 0.43 0.37 0.32 0.30 0.27 0.24 0.22 0.19 0.16 0.13 0.11 0.10 0.09 0.08 0.07 0.07 0.07 0.07 0.08 0.09 0.11
1.56 1.67 1.67 1.64 1.60 1.69 1.70 1.57 1.37 1.22 1.01 0.91 0.88 0.83 0.81 0.80 0.78 0.73 0.64 0.61 0.66 0.62 0.53 0.47 0.40 0.37 0.34 0.35 0.33 0.25 0.20 0.18 0.16 0.13 0.12 0.11 0.11 0.11 0.11 0.11 0.11 0.10 0.10
1.65 1.74 1.75 1.71 1.71 1.74 1.72 1.59 1.40 1.21 1.14 1.04 0.96 0.92 0.90 0.91 0.96 0.90 0.76 0.75 0.78 0.71 0.64 0.62 0.62 0.57 0.50 0.49 0.45 0.32 0.24 0.20 0.17 0.13 0.12 0.12 0.12 0.13 0.13 0.15 0.14 0.13 0.12
1.53 1.77 1.85 1.84 1.85 1.72 1.59 1.64 1.61 1.54 1.40 1.29 1.23 1.14 1.01 0.97 0.99 1.00 0.98 0.96 0.95 0.93 0.91 0.86 0.83 0.76 0.68 0.68 0.62 0.56 0.38 0.26 0.18 0.15 0.16 0.16 0.15 0.15 0.15 0.16 0.16 0.16 0.15
1.31 1.62 1.80 1.91 1.94 1.93 1.87 1.99 1.94 1.82 1.58 1.32 1.15 1.15 1.14 1.11 1.10 1.07 1.08 1.11 1.12 1.09 1.02 1.01 1.01 0.95 0.87 0.83 0.79 0.81 0.59 0.36 0.25 0.20 0.20 0.20 0.20 0.20 0.19 0.20 0.19 0.19 0.18
1.10 1.34 1.54 1.81 2.00 2.07 2.13 2.08 1.96 1.75 1.51 1.27 1.24 1.34 1.37 1.31 1.23 1.19 1.18 1.18 1.19 1.14 1.07 1.12 1.16 1.08 1.06 0.98 0.95 0.87 0.74 0.56 0.48 0.35 0.25 0.26 0.27 0.26 0.26 0.25 0.22 0.21 0.21
1.01 1.20 1.33 1.55 1.86 1.96 1.91 1.89 1.96 1.83 1.61 1.49 1.46 1.43 1.41 1.34 1.27 1.21 1.19 1.21 1.18 1.16 1.10 1.12 1.17 1.19 1.18 1.13 1.05 1.01 1.00 0.86 0.71 0.63 0.47 0.36 0.36 0.35 0.36 0.35 0.32 0.29 0.27
0.85 1.05 1.23 1.32 1.53 1.68 1.67 1.72 1.79 1.71 1.64 1.54 1.41 1.36 1.36 1.32 1.24 1.18 1.16 1.18 1.20 1.19 1.15 1.14 1.20 1.25 1.26 1.19 1.09 1.00 0.98 0.92 0.80 0.79 0.70 0.52 0.45 0.38 0.38 0.38 0.38 0.37 0.38